Time,TemperatureF,DewpointF,PressureIn,WindDirection,WindDirectionDegrees,WindSpeedMPH,WindSpeedGustMPH,Humidity,HourlyPrecipIn,Conditions,Clouds,dailyrainin,SoftwareType,DateUTC
2013-02-08 00:01:00,32.9,-0.8,29.18,North,353,2.7,2.7,23,0.00,,---,0.00,VWS V14.01,2013-02-08 06:01:00,
2013-02-08 00:02:00,32.9,-0.8,29.18,NNW,330,5.4,5.4,23,0.00,,---,0.00,VWS V14.01,2013-02-08 06:02:00,
2013-02-08 00:06:00,32.9,-0.8,29.18,NNW,330,5.4,5.4,23,0.00,,---,0.00,VWS V14.01,2013-02-08 06:06:00,
2013-02-08 00:07:00,32.7,-1.0,29.18,NNW,333,5.4,5.4,23,0.00,,---,0.00,VWS V14.01,2013-02-08 06:07:00,
2013-02-08 00:11:00,32.7,-1.0,29.18,NNE,18,4.9,4.9,23,0.00,,---,0.00,VWS V14.01,2013-02-08 06:11:00,
2013-02-08 00:12:00,32.7,-1.0,29.18,NNE,18,4.9,4.9,23,0.00,,---,0.00,VWS V14.01,2013-02-08 06:12:00,
2013-02-08 00:16:00,32.7,-1.0,29.18,North,11,4.0,4.0,23,0.00,,---,0.00,VWS V14.01,2013-02-08 06:16:00,
2013-02-08 00:17:00,32.7,-1.0,29.18,North,11,4.0,4.0,23,0.00,,---,0.00,VWS V14.01,2013-02-08 06:17:00,
2013-02-08 00:21:00,32.7,-1.0,29.18,North,353,4.0,4.0,23,0.00,,---,0.00,VWS V14.01,2013-02-08 06:21:00,
2013-02-08 00:22:00,32.7,-1.0,29.18,WNW,303,0.0,4.0,23,0.00,,---,0.00,VWS V14.01,2013-02-08 06:22:00,
2013-02-08 00:26:00,32.7,-1.0,29.18,WNW,303,0.0,0.0,23,0.00,,---,0.00,VWS V14.01,2013-02-08 06:26:00,
2013-02-08 00:27:00,32.7,-1.0,29.18,WNW,303,0.0,0.0,23,0.00,,---,0.00,VWS V14.01,2013-02-08 06:27:00,
2013-02-08 00:31:00,32.7,-1.0,29.18,NNE,22,7.2,7.2,23,0.00,,---,0.00,VWS V14.01,2013-02-08 06:31:00,
2013-02-08 00:32:00,32.7,-1.0,29.18,NNE,22,7.2,7.2,23,0.00,,---,0.00,VWS V14.01,2013-02-08 06:32:00,
2013-02-08 00:36:00,32.7,-1.0,29.18,North,353,7.2,7.2,23,0.00,,---,0.00,VWS V14.01,2013-02-08 06:36:00,
2013-02-08 00:37:00,32.7,-1.0,29.18,North,353,7.2,7.2,23,0.00,,---,0.00,VWS V14.01,2013-02-08 06:37:00,
2013-02-08 00:38:00,32.5,-1.1,29.18,North,353,7.2,7.2,23,0.00,,---,0.00,VWS V14.01,2013-02-08 06:38:00,
2013-02-08 00:41:00,32.5,-1.1,29.18,NW,320,3.1,3.1,23,0.00,,---,0.00,VWS V14.01,2013-02-08 06:41:00,
2013-02-08 00:42:00,32.5,-1.1,29.18,NW,320,3.1,3.1,23,0.00,,---,0.00,VWS V14.01,2013-02-08 06:42:00,
2013-02-08 00:43:00,32.5,-1.1,29.18,NW,320,3.1,3.1,23,0.00,,---,0.00,VWS V14.01,2013-02-08 06:43:00,
2013-02-08 00:46:00,32.5,-1.1,29.18,NW,321,3.1,3.1,23,0.00,,---,0.00,VWS V14.01,2013-02-08 06:46:00,
2013-02-08 00:47:00,32.5,-1.1,29.18,NW,321,3.1,3.1,23,0.00,,---,0.00,VWS V14.01,2013-02-08 06:47:00,
2013-02-08 00:48:00,32.5,-1.1,29.18,WNW,291,5.8,5.8,23,0.00,,---,0.00,VWS V14.01,2013-02-08 06:48:00,
2013-02-08 00:52:00,32.4,-1.3,29.18,North,10,4.0,4.0,23,0.00,,---,0.00,VWS V14.01,2013-02-08 06:52:00,
2013-02-08 00:53:00,32.4,-1.3,29.18,North,10,4.0,4.0,23,0.00,,---,0.00,VWS V14.01,2013-02-08 06:53:00,
2013-02-08 00:57:00,32.4,-1.3,29.18,NNW,329,2.7,2.7,23,0.00,,---,0.00,VWS V14.01,2013-02-08 06:57:00,
2013-02-08 00:58:00,32.4,-1.3,29.18,North,357,3.1,3.1,23,0.00,,---,0.00,VWS V14.01,2013-02-08 06:58:00,
2013-02-08 01:02:00,32.4,-1.3,29.18,North,0,2.7,2.7,23,0.00,,---,0.00,VWS V14.01,2013-02-08 07:02:00,
2013-02-08 01:03:00,32.4,-1.3,29.18,North,0,2.7,2.7,23,0.00,,---,0.00,VWS V14.01,2013-02-08 07:03:00,
2013-02-08 01:04:00,32.4,-1.3,29.18,North,0,2.7,2.7,23,0.00,,---,0.00,VWS V14.01,2013-02-08 07:04:00,
2013-02-08 01:07:00,32.4,-1.3,29.18,NNE,22,0.0,0.0,23,0.00,,---,0.00,VWS V14.01,2013-02-08 07:07:00,
2013-02-08 01:08:00,32.4,-1.3,29.18,NNE,22,0.0,0.0,23,0.00,,---,0.00,VWS V14.01,2013-02-08 07:08:00,
2013-02-08 01:09:00,32.4,-1.3,29.18,NNE,22,0.0,0.0,23,0.00,,---,0.00,VWS V14.01,2013-02-08 07:09:00,
2013-02-08 01:12:00,32.4,-1.3,29.18,North,4,3.1,3.1,23,0.00,,---,0.00,VWS V14.01,2013-02-08 07:12:00,
2013-02-08 01:13:00,32.4,-1.3,29.18,NE,52,4.0,4.0,23,0.00,,---,0.00,VWS V14.01,2013-02-08 07:13:00,
2013-02-08 01:14:00,32.2,-1.4,29.18,North,357,3.6,4.0,23,0.00,,---,0.00,VWS V14.01,2013-02-08 07:14:00,
2013-02-08 01:17:00,32.2,-1.4,29.18,NNW,337,2.7,2.7,23,0.00,,---,0.00,VWS V14.01,2013-02-08 07:17:00,
2013-02-08 01:18:00,32.2,-1.4,29.18,NNW,345,3.6,3.6,23,0.00,,---,0.00,VWS V14.01,2013-02-08 07:18:00,
2013-02-08 01:19:00,32.2,-1.4,29.18,NNE,15,5.8,5.8,23,0.00,,---,0.00,VWS V14.01,2013-02-08 07:19:00,
2013-02-08 01:22:00,32.2,-1.4,29.18,NNE,15,5.8,5.8,23,0.00,,---,0.00,VWS V14.01,2013-02-08 07:22:00,
2013-02-08 01:23:00,32.2,-1.4,29.18,NNE,15,5.8,5.8,23,0.00,,---,0.00,VWS V14.01,2013-02-08 07:23:00,
2013-02-08 01:24:00,32.2,-1.4,29.18,NNW,340,4.9,4.9,23,0.00,,---,0.00,VWS V14.01,2013-02-08 07:24:00,
2013-02-08 01:27:00,32.2,-1.4,29.18,North,4,0.0,5.8,23,0.00,,---,0.00,VWS V14.01,2013-02-08 07:27:00,
2013-02-08 01:28:00,32.2,-1.4,29.18,North,4,0.0,5.8,23,0.00,,---,0.00,VWS V14.01,2013-02-08 07:28:00,
2013-02-08 01:29:00,32.2,-1.4,29.18,North,4,0.0,0.0,23,0.00,,---,0.00,VWS V14.01,2013-02-08 07:29:00,
2013-02-08 01:32:00,32.2,-1.4,29.18,North,0,4.9,4.9,23,0.00,,---,0.00,VWS V14.01,2013-02-08 07:32:00,
2013-02-08 01:33:00,32.2,-1.4,29.18,North,0,4.9,4.9,23,0.00,,---,0.00,VWS V14.01,2013-02-08 07:33:00,
2013-02-08 01:34:00,32.2,-1.4,29.18,North,0,3.6,4.9,23,0.00,,---,0.00,VWS V14.01,2013-02-08 07:34:00,
2013-02-08 01:37:00,32.2,-1.4,29.18,North,0,3.6,3.6,23,0.00,,---,0.00,VWS V14.01,2013-02-08 07:37:00,
2013-02-08 01:38:00,32.2,-1.4,29.18,NNW,339,8.3,8.3,23,0.00,,---,0.00,VWS V14.01,2013-02-08 07:38:00,
2013-02-08 01:40:00,32.2,-1.4,29.18,NNW,344,4.5,4.5,23,0.00,,---,0.00,VWS V14.01,2013-02-08 07:40:00,
2013-02-08 01:42:00,32.2,-1.4,29.18,NNE,17,2.7,2.7,23,0.00,,---,0.00,VWS V14.01,2013-02-08 07:42:00,
2013-02-08 01:43:00,32.2,-1.4,29.18,NNE,17,2.7,2.7,23,0.00,,---,0.00,VWS V14.01,2013-02-08 07:43:00,
2013-02-08 01:45:00,32.2,-1.4,29.18,NNE,17,2.7,2.7,23,0.00,,---,0.00,VWS V14.01,2013-02-08 07:45:00,
2013-02-08 01:47:00,32.2,-1.4,29.18,NNW,340,2.7,2.7,23,0.00,,---,0.00,VWS V14.01,2013-02-08 07:47:00,
2013-02-08 01:48:00,32.2,-1.4,29.18,WNW,302,0.0,2.7,23,0.00,,---,0.00,VWS V14.01,2013-02-08 07:48:00,
2013-02-08 01:49:00,32.2,-1.4,29.18,WNW,302,0.0,0.0,23,0.00,,---,0.00,VWS V14.01,2013-02-08 07:49:00,
2013-02-08 01:50:00,32.2,-1.4,29.18,WNW,302,0.0,0.0,23,0.00,,---,0.00,VWS V14.01,2013-02-08 07:50:00,
2013-02-08 01:52:00,32.2,-1.4,29.18,WNW,302,0.0,0.0,23,0.00,,---,0.00,VWS V14.01,2013-02-08 07:52:00,
2013-02-08 01:53:00,32.2,-1.4,29.18,WNW,302,0.0,0.0,23,0.00,,---,0.00,VWS V14.01,2013-02-08 07:53:00,
2013-02-08 01:54:00,32.2,-1.4,29.18,NNW,331,3.1,3.1,23,0.00,,---,0.00,VWS V14.01,2013-02-08 07:54:00,
2013-02-08 01:55:00,32.2,-1.4,29.18,NNW,331,3.1,3.1,23,0.00,,---,0.00,VWS V14.01,2013-02-08 07:55:00,
2013-02-08 01:57:00,32.2,-1.4,29.18,NNW,341,3.1,3.1,23,0.00,,---,0.00,VWS V14.01,2013-02-08 07:57:00,
2013-02-08 01:58:00,32.2,-1.4,29.18,NNW,341,3.1,3.1,23,0.00,,---,0.00,VWS V14.01,2013-02-08 07:58:00,
2013-02-08 01:59:00,32.2,-1.4,29.18,NNE,22,0.0,3.1,23,0.00,,---,0.00,VWS V14.01,2013-02-08 07:59:00,
2013-02-08 02:00:00,32.2,-1.4,29.18,NNW,334,3.1,3.1,23,0.00,,---,0.00,VWS V14.01,2013-02-08 08:00:00,
2013-02-08 02:02:00,32.2,-1.4,29.21,North,10,3.1,3.1,23,0.00,,---,0.00,VWS V14.01,2013-02-08 08:02:00,
2013-02-08 02:03:00,32.2,-1.4,29.21,North,10,3.1,3.1,23,0.00,,---,0.00,VWS V14.01,2013-02-08 08:03:00,
2013-02-08 02:04:00,32.2,-1.4,29.21,North,10,3.1,3.1,23,0.00,,---,0.00,VWS V14.01,2013-02-08 08:04:00,
2013-02-08 02:05:00,32.2,-1.4,29.21,NNW,338,0.0,3.1,23,0.00,,---,0.00,VWS V14.01,2013-02-08 08:05:00,
2013-02-08 02:07:00,32.2,-1.4,29.21,North,8,0.0,2.2,23,0.00,,---,0.00,VWS V14.01,2013-02-08 08:07:00,
2013-02-08 02:08:00,32.2,-1.4,29.21,North,8,0.0,2.2,23,0.00,,---,0.00,VWS V14.01,2013-02-08 08:08:00,
2013-02-08 02:09:00,32.2,-1.4,29.21,North,8,0.0,0.0,23,0.00,,---,0.00,VWS V14.01,2013-02-08 08:09:00,
2013-02-08 02:10:00,32.2,-1.4,29.21,North,8,0.0,0.0,23,0.00,,---,0.00,VWS V14.01,2013-02-08 08:10:00,
2013-02-08 02:13:00,32.2,-1.4,29.21,North,3,2.7,2.7,23,0.00,,---,0.00,VWS V14.01,2013-02-08 08:13:00,
2013-02-08 02:14:00,32.2,-1.4,29.21,NNW,331,2.7,2.7,23,0.00,,---,0.00,VWS V14.01,2013-02-08 08:14:00,
2013-02-08 02:15:00,32.2,-1.4,29.21,NNW,331,2.7,2.7,23,0.00,,---,0.00,VWS V14.01,2013-02-08 08:15:00,
2013-02-08 02:18:00,32.2,-1.4,29.21,NNW,331,2.7,2.7,23,0.00,,---,0.00,VWS V14.01,2013-02-08 08:18:00,
2013-02-08 02:19:00,32.2,-1.4,29.21,NNW,329,0.0,0.0,23,0.00,,---,0.00,VWS V14.01,2013-02-08 08:19:00,
2013-02-08 02:20:00,32.2,-1.4,29.21,West,268,4.0,4.0,23,0.00,,---,0.00,VWS V14.01,2013-02-08 08:20:00,
2013-02-08 02:23:00,32.2,-1.4,29.21,NW,321,2.7,4.0,23,0.00,,---,0.00,VWS V14.01,2013-02-08 08:23:00,
2013-02-08 02:24:00,32.2,-1.4,29.21,NW,321,2.7,2.7,23,0.00,,---,0.00,VWS V14.01,2013-02-08 08:24:00,
2013-02-08 02:26:00,32.2,-1.4,29.21,NW,313,3.6,3.6,23,0.00,,---,0.00,VWS V14.01,2013-02-08 08:26:00,
2013-02-08 02:28:00,32.2,-1.4,29.21,NW,313,3.6,3.6,23,0.00,,---,0.00,VWS V14.01,2013-02-08 08:28:00,
2013-02-08 02:29:00,32.2,-1.4,29.21,NNW,340,2.7,3.6,23,0.00,,---,0.00,VWS V14.01,2013-02-08 08:29:00,
2013-02-08 02:31:00,32.2,-1.4,29.21,NNW,340,2.7,2.7,23,0.00,,---,0.00,VWS V14.01,2013-02-08 08:31:00,
2013-02-08 02:33:00,32.2,-1.4,29.21,West,268,3.1,3.1,23,0.00,,---,0.00,VWS V14.01,2013-02-08 08:33:00,
2013-02-08 02:34:00,32.2,-1.4,29.21,West,268,3.1,3.1,23,0.00,,---,0.00,VWS V14.01,2013-02-08 08:34:00,
2013-02-08 02:36:00,32.2,-1.4,29.21,NNW,331,3.1,3.1,23,0.00,,---,0.00,VWS V14.01,2013-02-08 08:36:00,
2013-02-08 02:38:00,32.2,-1.4,29.21,NNW,331,3.1,3.1,23,0.00,,---,0.00,VWS V14.01,2013-02-08 08:38:00,
2013-02-08 02:39:00,32.2,-1.4,29.21,NW,323,3.6,3.6,23,0.00,,---,0.00,VWS V14.01,2013-02-08 08:39:00,
2013-02-08 02:41:00,32.2,-1.4,29.21,NW,312,3.6,3.6,23,0.00,,---,0.00,VWS V14.01,2013-02-08 08:41:00,
2013-02-08 02:43:00,32.2,-1.4,29.21,North,357,4.9,4.9,23,0.00,,---,0.00,VWS V14.01,2013-02-08 08:43:00,
2013-02-08 02:44:00,32.2,-1.4,29.21,North,357,4.9,4.9,23,0.00,,---,0.00,VWS V14.01,2013-02-08 08:44:00,
2013-02-08 02:46:00,32.2,-1.4,29.21,North,357,4.9,4.9,23,0.00,,---,0.00,VWS V14.01,2013-02-08 08:46:00,
2013-02-08 02:48:00,32.2,-1.4,29.21,North,353,3.1,3.1,23,0.00,,---,0.00,VWS V14.01,2013-02-08 08:48:00,
2013-02-08 02:49:00,32.2,-1.4,29.21,North,353,3.1,3.1,23,0.00,,---,0.00,VWS V14.01,2013-02-08 08:49:00,
2013-02-08 02:51:00,32.2,-1.4,29.21,North,349,3.1,3.1,23,0.00,,---,0.00,VWS V14.01,2013-02-08 08:51:00,
2013-02-08 02:53:00,32.2,-1.4,29.21,NNW,342,2.7,2.7,23,0.00,,---,0.00,VWS V14.01,2013-02-08 08:53:00,
2013-02-08 02:54:00,32.2,-1.4,29.21,North,353,3.1,3.1,23,0.00,,---,0.00,VWS V14.01,2013-02-08 08:54:00,
2013-02-08 02:55:00,32.2,-1.4,29.21,North,353,3.1,3.1,23,0.00,,---,0.00,VWS V14.01,2013-02-08 08:55:00,
2013-02-08 02:56:00,32.2,-1.4,29.21,North,353,3.1,3.1,23,0.00,,---,0.00,VWS V14.01,2013-02-08 08:56:00,
2013-02-08 02:58:00,32.2,-1.4,29.21,North,0,0.0,0.0,23,0.00,,---,0.00,VWS V14.01,2013-02-08 08:58:00,
2013-02-08 02:59:00,32.2,-1.4,29.21,NNW,337,3.6,3.6,23,0.00,,---,0.00,VWS V14.01,2013-02-08 08:59:00,
2013-02-08 03:00:00,32.2,-1.4,29.21,NNW,337,3.6,3.6,23,0.00,,---,0.00,VWS V14.01,2013-02-08 09:00:00,
2013-02-08 03:01:00,32.2,-1.4,29.21,North,0,3.1,3.6,23,0.00,,---,0.00,VWS V14.01,2013-02-08 09:01:00,
2013-02-08 03:03:00,32.2,-1.4,29.21,WNW,294,2.7,2.7,23,0.00,,---,0.00,VWS V14.01,2013-02-08 09:03:00,
2013-02-08 03:04:00,32.2,-1.4,29.21,WNW,294,2.7,2.7,23,0.00,,---,0.00,VWS V14.01,2013-02-08 09:04:00,
2013-02-08 03:05:00,32.2,-1.4,29.21,WNW,297,2.7,2.7,23,0.00,,---,0.00,VWS V14.01,2013-02-08 09:05:00,
2013-02-08 03:06:00,32.2,-1.4,29.21,WNW,297,2.7,2.7,23,0.00,,---,0.00,VWS V14.01,2013-02-08 09:06:00,
2013-02-08 03:09:00,32.2,-1.4,29.21,North,357,4.0,4.0,23,0.00,,---,0.00,VWS V14.01,2013-02-08 09:09:00,
2013-02-08 03:10:00,32.2,-1.4,29.21,North,357,4.0,4.0,23,0.00,,---,0.00,VWS V14.01,2013-02-08 09:10:00,
2013-02-08 03:11:00,32.2,-1.4,29.21,NNW,336,2.7,2.7,23,0.00,,---,0.00,VWS V14.01,2013-02-08 09:11:00,
2013-02-08 03:14:00,32.0,-1.6,29.21,North,0,2.2,2.7,23,0.00,,---,0.00,VWS V14.01,2013-02-08 09:14:00,
2013-02-08 03:15:00,32.0,-1.6,29.21,North,0,2.2,2.2,23,0.00,,---,0.00,VWS V14.01,2013-02-08 09:15:00,
2013-02-08 03:16:00,32.0,-1.6,29.21,North,0,2.2,2.2,23,0.00,,---,0.00,VWS V14.01,2013-02-08 09:16:00,
2013-02-08 03:19:00,32.0,-1.6,29.21,NNE,33,0.0,0.0,23,0.00,,---,0.00,VWS V14.01,2013-02-08 09:19:00,
2013-02-08 03:20:00,32.0,-1.6,29.21,NNE,33,0.0,0.0,23,0.00,,---,0.00,VWS V14.01,2013-02-08 09:20:00,
2013-02-08 03:21:00,32.0,-1.6,29.21,NNE,33,0.0,0.0,23,0.00,,---,0.00,VWS V14.01,2013-02-08 09:21:00,
2013-02-08 03:24:00,32.0,-1.6,29.21,NNE,33,0.0,0.0,23,0.00,,---,0.00,VWS V14.01,2013-02-08 09:24:00,
2013-02-08 03:25:00,32.0,-1.6,29.21,North,0,0.0,0.0,23,0.00,,---,0.00,VWS V14.01,2013-02-08 09:25:00,
2013-02-08 03:27:00,32.0,-1.6,29.21,North,353,0.0,0.0,23,0.00,,---,0.00,VWS V14.01,2013-02-08 09:27:00,
2013-02-08 03:29:00,32.0,-1.6,29.21,North,353,0.0,0.0,23,0.00,,---,0.00,VWS V14.01,2013-02-08 09:29:00,
2013-02-08 03:30:00,32.0,-1.6,29.21,North,353,0.0,0.0,23,0.00,,---,0.00,VWS V14.01,2013-02-08 09:30:00,
2013-02-08 03:32:00,32.0,-1.6,29.21,NNW,345,0.0,0.0,23,0.00,,---,0.00,VWS V14.01,2013-02-08 09:32:00,
2013-02-08 03:34:00,32.0,-1.6,29.21,NNW,345,0.0,0.0,23,0.00,,---,0.00,VWS V14.01,2013-02-08 09:34:00,
2013-02-08 03:35:00,32.0,-1.6,29.21,North,0,0.0,0.0,23,0.00,,---,0.00,VWS V14.01,2013-02-08 09:35:00,
2013-02-08 03:37:00,32.0,-1.6,29.21,North,0,0.0,0.0,23,0.00,,---,0.00,VWS V14.01,2013-02-08 09:37:00,
2013-02-08 03:39:00,32.0,-1.6,29.21,NNW,335,2.7,2.7,23,0.00,,---,0.00,VWS V14.01,2013-02-08 09:39:00,
2013-02-08 03:40:00,32.0,-1.6,29.21,North,4,0.0,0.0,23,0.00,,---,0.00,VWS V14.01,2013-02-08 09:40:00,
2013-02-08 03:42:00,32.0,-1.6,29.21,North,4,0.0,0.0,23,0.00,,---,0.00,VWS V14.01,2013-02-08 09:42:00,
2013-02-08 03:44:00,32.0,-1.6,29.21,North,4,0.0,0.0,23,0.00,,---,0.00,VWS V14.01,2013-02-08 09:44:00,
2013-02-08 03:45:00,32.0,-1.6,29.21,NNE,21,3.6,3.6,23,0.00,,---,0.00,VWS V14.01,2013-02-08 09:45:00,
2013-02-08 03:47:00,32.0,-1.6,29.21,NW,324,3.1,3.1,23,0.00,,---,0.00,VWS V14.01,2013-02-08 09:47:00,
2013-02-08 03:49:00,32.0,-1.6,29.21,NW,324,3.1,3.1,23,0.00,,---,0.00,VWS V14.01,2013-02-08 09:49:00,
2013-02-08 03:50:00,32.0,-1.6,29.21,NW,324,3.1,3.1,23,0.00,,---,0.00,VWS V14.01,2013-02-08 09:50:00,
2013-02-08 03:52:00,31.8,-1.8,29.21,NW,324,3.1,3.1,23,0.00,,---,0.00,VWS V14.01,2013-02-08 09:52:00,
2013-02-08 03:54:00,31.8,-1.8,29.21,NNW,341,4.9,4.9,23,0.00,,---,0.00,VWS V14.01,2013-02-08 09:54:00,
2013-02-08 03:55:00,31.8,-1.8,29.21,NNW,341,4.9,4.9,23,0.00,,---,0.00,VWS V14.01,2013-02-08 09:55:00,
2013-02-08 03:57:00,31.8,-1.8,29.21,North,349,2.7,4.9,23,0.00,,---,0.00,VWS V14.01,2013-02-08 09:57:00,
2013-02-08 03:59:00,31.8,-1.8,29.21,NW,324,4.9,4.9,23,0.00,,---,0.00,VWS V14.01,2013-02-08 09:59:00,
2013-02-08 04:00:00,31.8,-1.8,29.21,NW,324,4.9,4.9,23,0.00,,---,0.00,VWS V14.01,2013-02-08 10:00:00,
2013-02-08 04:02:00,31.8,-1.8,29.21,NW,324,4.9,4.9,23,0.00,,---,0.00,VWS V14.01,2013-02-08 10:02:00,
2013-02-08 04:04:00,31.8,-1.8,29.21,NW,312,0.0,0.0,23,0.00,,---,0.00,VWS V14.01,2013-02-08 10:04:00,
2013-02-08 04:05:00,31.8,-1.8,29.21,NW,312,0.0,0.0,23,0.00,,---,0.00,VWS V14.01,2013-02-08 10:05:00,
2013-02-08 04:07:00,31.8,-1.8,29.21,WSW,256,2.7,2.7,23,0.00,,---,0.00,VWS V14.01,2013-02-08 10:07:00,
2013-02-08 04:09:00,31.8,-1.8,29.21,NNE,15,3.1,3.1,23,0.00,,---,0.00,VWS V14.01,2013-02-08 10:09:00,
2013-02-08 04:10:00,31.8,-1.8,29.21,NNE,15,3.1,3.1,23,0.00,,---,0.00,VWS V14.01,2013-02-08 10:10:00,
2013-02-08 04:11:00,31.8,-1.8,29.21,NW,325,2.2,3.1,23,0.00,,---,0.00,VWS V14.01,2013-02-08 10:11:00,
2013-02-08 04:12:00,31.8,-1.8,29.21,North,7,2.2,2.2,23,0.00,,---,0.00,VWS V14.01,2013-02-08 10:12:00,
2013-02-08 04:15:00,31.8,-1.8,29.21,WNW,292,3.6,3.6,23,0.00,,---,0.00,VWS V14.01,2013-02-08 10:15:00,
2013-02-08 04:16:00,31.6,-1.9,29.21,WNW,292,3.6,3.6,23,0.00,,---,0.00,VWS V14.01,2013-02-08 10:16:00,
2013-02-08 04:17:00,31.6,-1.9,29.21,WNW,292,3.6,3.6,23,0.00,,---,0.00,VWS V14.01,2013-02-08 10:17:00,
2013-02-08 04:20:00,31.6,-1.9,29.21,WNW,292,3.6,3.6,23,0.00,,---,0.00,VWS V14.01,2013-02-08 10:20:00,
2013-02-08 04:21:00,31.6,-1.9,29.21,North,349,4.0,4.0,23,0.00,,---,0.00,VWS V14.01,2013-02-08 10:21:00,
2013-02-08 04:22:00,31.6,-1.9,29.21,NNW,348,5.4,5.4,23,0.00,,---,0.00,VWS V14.01,2013-02-08 10:22:00,
2013-02-08 04:25:00,31.6,-1.9,29.21,NNW,339,3.6,5.4,23,0.00,,---,0.00,VWS V14.01,2013-02-08 10:25:00,
2013-02-08 04:26:00,31.6,-1.9,29.21,NNW,339,3.6,3.6,23,0.00,,---,0.00,VWS V14.01,2013-02-08 10:26:00,
2013-02-08 04:27:00,31.6,-1.9,29.21,NW,321,5.8,5.8,23,0.00,,---,0.00,VWS V14.01,2013-02-08 10:27:00,
2013-02-08 04:30:00,31.6,-1.9,29.23,NW,321,5.8,5.8,23,0.00,,---,0.00,VWS V14.01,2013-02-08 10:30:00,
2013-02-08 04:31:00,31.6,-1.9,29.23,NNW,328,2.7,5.8,23,0.00,,---,0.00,VWS V14.01,2013-02-08 10:31:00,
2013-02-08 04:32:00,31.6,-1.9,29.23,NW,323,2.2,2.7,23,0.00,,---,0.00,VWS V14.01,2013-02-08 10:32:00,
2013-02-08 04:35:00,31.6,-1.9,29.23,SW,222,2.7,2.7,23,0.00,,---,0.00,VWS V14.01,2013-02-08 10:35:00,
2013-02-08 04:36:00,31.6,-1.9,29.23,SW,222,2.7,2.7,23,0.00,,---,0.00,VWS V14.01,2013-02-08 10:36:00,
2013-02-08 04:37:00,31.6,-1.9,29.23,SW,222,2.7,2.7,23,0.00,,---,0.00,VWS V14.01,2013-02-08 10:37:00,
2013-02-08 04:40:00,31.6,-1.9,29.23,North,6,0.0,0.0,23,0.00,,---,0.00,VWS V14.01,2013-02-08 10:40:00,
2013-02-08 04:42:00,31.6,-1.9,29.23,NNW,348,2.7,2.7,23,0.00,,---,0.00,VWS V14.01,2013-02-08 10:42:00,
2013-02-08 04:45:00,31.6,-1.9,29.23,North,353,2.2,2.2,23,0.00,,---,0.00,VWS V14.01,2013-02-08 10:45:00,
2013-02-08 04:47:00,31.6,-1.9,29.23,North,353,3.6,3.6,23,0.00,,---,0.00,VWS V14.01,2013-02-08 10:47:00,
2013-02-08 04:48:00,31.6,-1.9,29.23,North,357,0.0,0.0,23,0.00,,---,0.00,VWS V14.01,2013-02-08 10:48:00,
2013-02-08 04:50:00,31.6,-1.9,29.23,North,353,2.2,2.2,23,0.00,,---,0.00,VWS V14.01,2013-02-08 10:50:00,
2013-02-08 04:52:00,31.6,-1.9,29.23,North,5,0.0,2.2,23,0.00,,---,0.00,VWS V14.01,2013-02-08 10:52:00,
2013-02-08 04:53:00,31.6,-1.9,29.23,North,5,0.0,0.0,23,0.00,,---,0.00,VWS V14.01,2013-02-08 10:53:00,
2013-02-08 04:55:00,31.5,-2.0,29.23,NW,325,3.1,3.1,23,0.00,,---,0.00,VWS V14.01,2013-02-08 10:55:00,
2013-02-08 04:56:00,31.5,-2.0,29.23,NW,325,3.1,3.1,23,0.00,,---,0.00,VWS V14.01,2013-02-08 10:56:00,
2013-02-08 04:57:00,31.5,-2.0,29.23,NW,325,3.1,3.1,23,0.00,,---,0.00,VWS V14.01,2013-02-08 10:57:00,
2013-02-08 04:58:00,31.5,-2.0,29.23,WNW,297,2.7,3.1,23,0.00,,---,0.00,VWS V14.01,2013-02-08 10:58:00,
2013-02-08 05:00:00,31.5,-2.0,29.23,WNW,297,2.7,2.7,23,0.00,,---,0.00,VWS V14.01,2013-02-08 11:00:00,
2013-02-08 05:01:00,31.5,-2.0,29.23,WNW,297,2.7,2.7,23,0.00,,---,0.00,VWS V14.01,2013-02-08 11:01:00,
2013-02-08 05:02:00,31.5,-2.0,29.23,WNW,297,2.7,2.7,23,0.00,,---,0.00,VWS V14.01,2013-02-08 11:02:00,
2013-02-08 05:03:00,31.5,-2.0,29.23,West,281,2.7,2.7,23,0.00,,---,0.00,VWS V14.01,2013-02-08 11:03:00,
2013-02-08 05:05:00,31.5,-2.0,29.23,North,357,3.1,3.6,23,0.00,,---,0.00,VWS V14.01,2013-02-08 11:05:00,
2013-02-08 05:06:00,31.5,-2.0,29.23,North,357,3.1,3.6,23,0.00,,---,0.00,VWS V14.01,2013-02-08 11:06:00,
2013-02-08 05:07:00,31.5,-2.0,29.23,NNE,32,2.7,3.1,23,0.00,,---,0.00,VWS V14.01,2013-02-08 11:07:00,
2013-02-08 05:08:00,31.5,-2.0,29.23,NNE,32,2.7,2.7,23,0.00,,---,0.00,VWS V14.01,2013-02-08 11:08:00,
2013-02-08 05:11:00,31.5,-2.0,29.23,NNW,336,0.0,0.0,23,0.00,,---,0.00,VWS V14.01,2013-02-08 11:11:00,
2013-02-08 05:12:00,31.5,-2.0,29.23,NNW,336,0.0,0.0,23,0.00,,---,0.00,VWS V14.01,2013-02-08 11:12:00,
2013-02-08 05:13:00,31.5,-2.0,29.23,NNW,336,0.0,0.0,23,0.00,,---,0.00,VWS V14.01,2013-02-08 11:13:00,
2013-02-08 05:16:00,31.5,-2.0,29.23,NW,309,4.9,4.9,23,0.00,,---,0.00,VWS V14.01,2013-02-08 11:16:00,
2013-02-08 05:17:00,31.5,-2.0,29.23,NNW,329,0.0,0.0,23,0.00,,---,0.00,VWS V14.01,2013-02-08 11:17:00,
2013-02-08 05:18:00,31.5,-2.0,29.23,NNE,12,0.0,0.0,23,0.00,,---,0.00,VWS V14.01,2013-02-08 11:18:00,
2013-02-08 05:21:00,31.5,-2.0,29.23,North,357,2.2,2.2,23,0.00,,---,0.00,VWS V14.01,2013-02-08 11:21:00,
2013-02-08 05:22:00,31.5,-2.0,29.23,North,357,2.2,2.2,23,0.00,,---,0.00,VWS V14.01,2013-02-08 11:22:00,
2013-02-08 05:23:00,31.5,-2.0,29.23,North,357,2.2,2.2,23,0.00,,---,0.00,VWS V14.01,2013-02-08 11:23:00,
2013-02-08 05:26:00,31.5,-2.0,29.23,NNW,340,5.4,5.4,23,0.00,,---,0.00,VWS V14.01,2013-02-08 11:26:00,
2013-02-08 05:27:00,31.5,-2.0,29.23,NNW,340,5.4,5.4,23,0.00,,---,0.00,VWS V14.01,2013-02-08 11:27:00,
2013-02-08 05:28:00,31.5,-2.0,29.23,NNW,340,5.4,5.4,23,0.00,,---,0.00,VWS V14.01,2013-02-08 11:28:00,
2013-02-08 05:31:00,31.5,-2.0,29.23,NNW,328,0.0,0.0,23,0.00,,---,0.00,VWS V14.01,2013-02-08 11:31:00,
2013-02-08 05:32:00,31.5,-2.0,29.23,North,0,3.6,3.6,23,0.00,,---,0.00,VWS V14.01,2013-02-08 11:32:00,
2013-02-08 05:33:00,31.5,-2.0,29.23,North,0,3.6,3.6,23,0.00,,---,0.00,VWS V14.01,2013-02-08 11:33:00,
2013-02-08 05:36:00,31.5,-2.0,29.23,North,349,0.0,0.0,23,0.00,,---,0.00,VWS V14.01,2013-02-08 11:36:00,
2013-02-08 05:37:00,31.5,-2.0,29.23,NNW,331,0.0,0.0,23,0.00,,---,0.00,VWS V14.01,2013-02-08 11:37:00,
2013-02-08 05:38:00,31.5,-2.0,29.23,North,2,0.0,0.0,23,0.00,,---,0.00,VWS V14.01,2013-02-08 11:38:00,
2013-02-08 05:41:00,31.5,-2.0,29.23,North,2,0.0,0.0,23,0.00,,---,0.00,VWS V14.01,2013-02-08 11:41:00,
2013-02-08 05:42:00,31.5,-2.0,29.26,North,2,0.0,0.0,23,0.00,,---,0.00,VWS V14.01,2013-02-08 11:42:00,
2013-02-08 05:43:00,31.5,-2.0,29.26,North,2,0.0,0.0,23,0.00,,---,0.00,VWS V14.01,2013-02-08 11:43:00,
2013-02-08 05:46:00,31.5,-2.0,29.26,North,2,0.0,0.0,23,0.00,,---,0.00,VWS V14.01,2013-02-08 11:46:00,
2013-02-08 05:47:00,31.5,-2.0,29.26,North,2,0.0,0.0,23,0.00,,---,0.00,VWS V14.01,2013-02-08 11:47:00,
2013-02-08 05:48:00,31.5,-2.0,29.26,North,2,0.0,0.0,23,0.00,,---,0.00,VWS V14.01,2013-02-08 11:48:00,
2013-02-08 05:51:00,31.5,-2.0,29.26,NNW,336,0.0,0.0,23,0.00,,---,0.00,VWS V14.01,2013-02-08 11:51:00,
2013-02-08 05:53:00,31.5,-2.0,29.26,ENE,62,2.7,2.7,23,0.00,,---,0.00,VWS V14.01,2013-02-08 11:53:00,
2013-02-08 05:56:00,31.5,-2.0,29.26,ENE,62,2.7,2.7,23,0.00,,---,0.00,VWS V14.01,2013-02-08 11:56:00,
2013-02-08 05:58:00,31.5,-2.0,29.26,NNW,342,0.0,2.7,23,0.00,,---,0.00,VWS V14.01,2013-02-08 11:58:00,
2013-02-08 06:01:00,31.5,-2.0,29.26,NNW,342,0.0,0.0,23,0.00,,---,0.00,VWS V14.01,2013-02-08 12:01:00,
2013-02-08 06:03:00,31.5,-2.0,29.26,North,357,3.1,3.1,23,0.00,,---,0.00,VWS V14.01,2013-02-08 12:03:00,
2013-02-08 06:06:00,31.5,-2.0,29.26,NNW,348,2.7,2.7,23,0.00,,---,0.00,VWS V14.01,2013-02-08 12:06:00,
2013-02-08 06:07:00,31.5,-2.0,29.26,NNW,348,2.7,2.7,23,0.00,,---,0.00,VWS V14.01,2013-02-08 12:07:00,
2013-02-08 06:08:00,31.5,-2.0,29.26,NNW,348,2.7,2.7,23,0.00,,---,0.00,VWS V14.01,2013-02-08 12:08:00,
2013-02-08 06:11:00,31.5,-2.0,29.26,North,0,0.0,2.7,23,0.00,,---,0.00,VWS V14.01,2013-02-08 12:11:00,
2013-02-08 06:12:00,31.5,-2.0,29.26,North,0,0.0,0.0,23,0.00,,---,0.00,VWS V14.01,2013-02-08 12:12:00,
2013-02-08 06:13:00,31.5,-2.0,29.26,North,353,3.1,3.1,23,0.00,,---,0.00,VWS V14.01,2013-02-08 12:13:00,
2013-02-08 06:16:00,31.3,-2.2,29.26,North,353,3.1,3.1,23,0.00,,---,0.00,VWS V14.01,2013-02-08 12:16:00,
2013-02-08 06:17:00,31.3,-2.2,29.26,North,353,3.1,3.1,23,0.00,,---,0.00,VWS V14.01,2013-02-08 12:17:00,
2013-02-08 06:18:00,31.3,-2.2,29.26,North,353,3.1,3.1,23,0.00,,---,0.00,VWS V14.01,2013-02-08 12:18:00,
2013-02-08 06:19:00,31.3,-2.2,29.26,North,353,3.1,3.1,23,0.00,,---,0.00,VWS V14.01,2013-02-08 12:19:00,
2013-02-08 06:21:00,31.3,-2.2,29.26,NNW,339,2.7,2.7,23,0.00,,---,0.00,VWS V14.01,2013-02-08 12:21:00,
2013-02-08 06:22:00,31.3,-2.2,29.26,North,353,3.1,3.1,23,0.00,,---,0.00,VWS V14.01,2013-02-08 12:22:00,
2013-02-08 06:23:00,31.3,-2.2,29.26,North,353,3.1,3.1,23,0.00,,---,0.00,VWS V14.01,2013-02-08 12:23:00,
2013-02-08 06:24:00,31.3,-2.2,29.26,North,353,3.1,3.1,23,0.00,,---,0.00,VWS V14.01,2013-02-08 12:24:00,
2013-02-08 06:26:00,31.3,-2.2,29.26,North,357,0.0,0.0,23,0.00,,---,0.00,VWS V14.01,2013-02-08 12:26:00,
2013-02-08 06:27:00,31.3,-2.2,29.26,North,357,0.0,0.0,23,0.00,,---,0.00,VWS V14.01,2013-02-08 12:27:00,
2013-02-08 06:29:00,31.3,-2.2,29.26,North,357,0.0,0.0,23,0.00,,---,0.00,VWS V14.01,2013-02-08 12:29:00,
2013-02-08 06:31:00,31.3,-2.2,29.26,North,357,0.0,0.0,23,0.00,,---,0.00,VWS V14.01,2013-02-08 12:31:00,
2013-02-08 06:32:00,31.3,-2.2,29.26,North,357,0.0,0.0,23,0.00,,---,0.00,VWS V14.01,2013-02-08 12:32:00,
2013-02-08 06:34:00,31.3,-2.2,29.26,North,0,0.0,0.0,23,0.00,,---,0.00,VWS V14.01,2013-02-08 12:34:00,
2013-02-08 06:36:00,31.3,-2.2,29.26,North,0,0.0,0.0,23,0.00,,---,0.00,VWS V14.01,2013-02-08 12:36:00,
2013-02-08 06:37:00,31.3,-2.2,29.26,North,0,0.0,0.0,23,0.00,,---,0.00,VWS V14.01,2013-02-08 12:37:00,
2013-02-08 06:39:00,31.3,-2.2,29.26,NE,44,0.0,0.0,23,0.00,,---,0.00,VWS V14.01,2013-02-08 12:39:00,
2013-02-08 06:41:00,31.3,-2.2,29.26,NE,44,0.0,0.0,23,0.00,,---,0.00,VWS V14.01,2013-02-08 12:41:00,
2013-02-08 06:42:00,31.5,-2.0,29.26,NE,44,0.0,0.0,23,0.00,,---,0.00,VWS V14.01,2013-02-08 12:42:00,
2013-02-08 06:44:00,31.5,-2.0,29.26,NE,44,0.0,0.0,23,0.00,,---,0.00,VWS V14.01,2013-02-08 12:44:00,
2013-02-08 06:47:00,31.5,-2.0,29.26,North,357,0.0,2.2,23,0.00,,---,0.00,VWS V14.01,2013-02-08 12:47:00,
2013-02-08 06:49:00,31.5,-2.0,29.26,NNW,342,0.0,0.0,23,0.00,,---,0.00,VWS V14.01,2013-02-08 12:49:00,
2013-02-08 06:52:00,31.5,-2.0,29.26,NW,310,2.7,2.7,23,0.00,,---,0.00,VWS V14.01,2013-02-08 12:52:00,
2013-02-08 06:54:00,31.5,-2.0,29.26,NNE,33,0.0,2.7,23,0.00,,---,0.00,VWS V14.01,2013-02-08 12:54:00,
2013-02-08 06:57:00,31.5,-2.0,29.26,NNE,33,0.0,0.0,23,0.00,,---,0.00,VWS V14.01,2013-02-08 12:57:00,
2013-02-08 06:59:00,31.5,-2.0,29.26,NNE,23,0.0,0.0,23,0.00,,---,0.00,VWS V14.01,2013-02-08 12:59:00,
2013-02-08 07:00:00,31.5,-2.0,29.26,NNE,23,0.0,0.0,23,0.00,,---,0.00,VWS V14.01,2013-02-08 13:00:00,
2013-02-08 07:02:00,31.5,-2.0,29.26,NNW,343,2.2,2.2,23,0.00,,---,0.00,VWS V14.01,2013-02-08 13:02:00,
2013-02-08 07:04:00,31.5,-2.0,29.26,North,353,2.7,2.7,23,0.00,,---,0.00,VWS V14.01,2013-02-08 13:04:00,
2013-02-08 07:05:00,31.5,-2.0,29.26,North,353,2.7,2.7,23,0.00,,---,0.00,VWS V14.01,2013-02-08 13:05:00,
2013-02-08 07:07:00,31.5,-2.0,29.26,North,353,3.6,3.6,23,0.00,,---,0.00,VWS V14.01,2013-02-08 13:07:00,
2013-02-08 07:09:00,31.5,-2.0,29.26,North,353,0.0,0.0,23,0.00,,---,0.00,VWS V14.01,2013-02-08 13:09:00,
2013-02-08 07:10:00,31.5,-2.0,29.26,North,353,0.0,0.0,23,0.00,,---,0.00,VWS V14.01,2013-02-08 13:10:00,
2013-02-08 07:12:00,31.5,-2.0,29.26,NNW,342,2.7,2.7,23,0.00,,---,0.00,VWS V14.01,2013-02-08 13:12:00,
2013-02-08 07:15:00,31.5,-2.0,29.26,NNW,342,0.0,0.0,23,0.00,,---,0.00,VWS V14.01,2013-02-08 13:15:00,
2013-02-08 07:17:00,31.5,-2.0,29.26,North,0,2.7,2.7,23,0.00,,---,0.00,VWS V14.01,2013-02-08 13:17:00,
2013-02-08 07:20:00,31.5,-2.0,29.26,NNW,332,0.0,0.0,23,0.00,,---,0.00,VWS V14.01,2013-02-08 13:20:00,
2013-02-08 07:22:00,31.5,-2.0,29.26,North,357,0.0,0.0,23,0.00,,---,0.00,VWS V14.01,2013-02-08 13:22:00,
2013-02-08 07:25:00,31.5,-2.0,29.26,North,357,0.0,0.0,23,0.00,,---,0.00,VWS V14.01,2013-02-08 13:25:00,
2013-02-08 07:26:00,31.5,-2.0,29.26,North,357,0.0,0.0,23,0.00,,---,0.00,VWS V14.01,2013-02-08 13:26:00,
2013-02-08 07:27:00,31.5,-2.0,29.26,North,357,0.0,0.0,23,0.00,,---,0.00,VWS V14.01,2013-02-08 13:27:00,
2013-02-08 07:28:00,31.5,-2.0,29.26,North,357,0.0,0.0,23,0.00,,---,0.00,VWS V14.01,2013-02-08 13:28:00,
2013-02-08 07:30:00,31.5,-2.0,29.26,North,357,0.0,0.0,23,0.00,,---,0.00,VWS V14.01,2013-02-08 13:30:00,
2013-02-08 07:31:00,31.5,-2.0,29.26,North,357,0.0,0.0,23,0.00,,---,0.00,VWS V14.01,2013-02-08 13:31:00,
2013-02-08 07:33:00,31.5,-2.0,29.26,North,353,3.6,3.6,23,0.00,,---,0.00,VWS V14.01,2013-02-08 13:33:00,
2013-02-08 07:35:00,31.5,-2.0,29.26,East,84,2.2,2.2,23,0.00,,---,0.00,VWS V14.01,2013-02-08 13:35:00,
2013-02-08 07:36:00,31.5,-2.0,29.26,East,84,2.2,2.2,23,0.00,,---,0.00,VWS V14.01,2013-02-08 13:36:00,
2013-02-08 07:38:00,31.5,-2.0,29.26,NNE,30,0.0,0.0,23,0.00,,---,0.00,VWS V14.01,2013-02-08 13:38:00,
2013-02-08 07:40:00,31.5,-2.0,29.26,NNW,341,0.0,0.0,23,0.00,,---,0.00,VWS V14.01,2013-02-08 13:40:00,
2013-02-08 07:41:00,31.5,-2.0,29.26,NNW,341,0.0,0.0,23,0.00,,---,0.00,VWS V14.01,2013-02-08 13:41:00,
2013-02-08 07:43:00,31.5,-2.0,29.26,NNW,341,0.0,0.0,23,0.00,,---,0.00,VWS V14.01,2013-02-08 13:43:00,
2013-02-08 07:45:00,31.5,-2.0,29.26,NE,39,0.0,0.0,23,0.00,,---,0.00,VWS V14.01,2013-02-08 13:45:00,
2013-02-08 07:46:00,31.5,-2.0,29.26,NE,39,0.0,0.0,23,0.00,,---,0.00,VWS V14.01,2013-02-08 13:46:00,
2013-02-08 07:48:00,31.6,-1.9,29.26,NE,39,0.0,0.0,23,0.00,,---,0.00,VWS V14.01,2013-02-08 13:48:00,
2013-02-08 07:51:00,31.6,-1.9,29.26,North,357,2.7,3.1,23,0.00,,---,0.00,VWS V14.01,2013-02-08 13:51:00,
2013-02-08 07:53:00,31.6,-1.9,29.26,North,353,2.7,2.7,23,0.00,,---,0.00,VWS V14.01,2013-02-08 13:53:00,
2013-02-08 07:56:00,31.5,-2.0,29.26,NNW,345,3.1,3.1,23,0.00,,---,0.00,VWS V14.01,2013-02-08 13:56:00,
2013-02-08 07:58:00,31.5,-2.0,29.26,North,0,3.6,3.6,23,0.00,,---,0.00,VWS V14.01,2013-02-08 13:58:00,
2013-02-08 08:01:00,31.5,-2.0,29.26,North,2,0.0,2.7,23,0.00,,---,0.00,VWS V14.01,2013-02-08 14:01:00,
2013-02-08 08:03:00,31.5,-2.0,29.26,North,2,0.0,0.0,23,0.00,,---,0.00,VWS V14.01,2013-02-08 14:03:00,
2013-02-08 08:06:00,31.5,-2.0,29.26,North,2,0.0,0.0,23,0.00,,---,0.00,VWS V14.01,2013-02-08 14:06:00,
2013-02-08 08:08:00,31.5,-2.0,29.26,North,2,0.0,0.0,23,0.00,,---,0.00,VWS V14.01,2013-02-08 14:08:00,
2013-02-08 08:11:00,31.5,-2.0,29.26,North,2,0.0,0.0,23,0.00,,---,0.00,VWS V14.01,2013-02-08 14:11:00,
2013-02-08 08:13:00,31.6,-1.9,29.26,North,2,0.0,0.0,23,0.00,,---,0.00,VWS V14.01,2013-02-08 14:13:00,
2013-02-08 08:16:00,31.6,-1.9,29.26,NNW,341,0.0,0.0,23,0.00,,---,0.00,VWS V14.01,2013-02-08 14:16:00,
2013-02-08 08:18:00,31.6,-1.9,29.26,North,0,3.1,3.1,23,0.00,,---,0.00,VWS V14.01,2013-02-08 14:18:00,
2013-02-08 08:21:00,31.8,-1.8,29.26,North,0,3.1,3.1,23,0.00,,---,0.00,VWS V14.01,2013-02-08 14:21:00,
2013-02-08 08:22:00,31.8,-1.8,29.26,North,0,3.1,3.1,23,0.00,,---,0.00,VWS V14.01,2013-02-08 14:22:00,
2013-02-08 08:23:00,31.8,-1.8,29.26,North,0,0.0,0.0,23,0.00,,---,0.00,VWS V14.01,2013-02-08 14:23:00,
2013-02-08 08:24:00,31.8,-1.8,29.26,North,0,0.0,0.0,23,0.00,,---,0.00,VWS V14.01,2013-02-08 14:24:00,
2013-02-08 08:26:00,31.8,-1.8,29.26,SSW,206,3.1,3.1,23,0.00,,---,0.00,VWS V14.01,2013-02-08 14:26:00,
2013-02-08 08:27:00,31.8,-1.8,29.26,NNW,344,0.0,3.1,23,0.00,,---,0.00,VWS V14.01,2013-02-08 14:27:00,
2013-02-08 08:28:00,31.8,-1.8,29.26,NNW,344,0.0,0.0,23,0.00,,---,0.00,VWS V14.01,2013-02-08 14:28:00,
2013-02-08 08:29:00,31.8,-1.8,29.26,NNW,344,0.0,0.0,23,0.00,,---,0.00,VWS V14.01,2013-02-08 14:29:00,
2013-02-08 08:31:00,31.8,-1.8,29.29,NNW,345,2.2,2.2,23,0.00,,---,0.00,VWS V14.01,2013-02-08 14:31:00,
2013-02-08 08:32:00,32.0,-1.6,29.29,NNW,345,2.2,2.2,23,0.00,,---,0.00,VWS V14.01,2013-02-08 14:32:00,
2013-02-08 08:33:00,32.0,-1.6,29.29,North,5,0.0,0.0,23,0.00,,---,0.00,VWS V14.01,2013-02-08 14:33:00,
2013-02-08 08:34:00,32.0,-1.6,29.29,North,5,0.0,0.0,23,0.00,,---,0.00,VWS V14.01,2013-02-08 14:34:00,
2013-02-08 08:36:00,32.0,-1.6,29.29,East,90,2.7,2.7,23,0.00,,---,0.00,VWS V14.01,2013-02-08 14:36:00,
2013-02-08 08:37:00,32.0,-1.6,29.29,East,90,2.7,2.7,23,0.00,,---,0.00,VWS V14.01,2013-02-08 14:37:00,
2013-02-08 08:39:00,32.0,-1.6,29.29,ENE,58,2.7,2.7,23,0.00,,---,0.00,VWS V14.01,2013-02-08 14:39:00,
2013-02-08 08:41:00,32.2,-1.4,29.29,ENE,58,0.0,0.0,23,0.00,,---,0.00,VWS V14.01,2013-02-08 14:41:00,
2013-02-08 08:42:00,32.2,-1.4,29.29,ENE,58,0.0,0.0,23,0.00,,---,0.00,VWS V14.01,2013-02-08 14:42:00,
2013-02-08 08:44:00,32.2,-1.4,29.29,ENE,58,0.0,0.0,23,0.00,,---,0.00,VWS V14.01,2013-02-08 14:44:00,
2013-02-08 08:46:00,32.2,-1.4,29.29,NE,37,0.0,0.0,23,0.00,,---,0.00,VWS V14.01,2013-02-08 14:46:00,
2013-02-08 08:47:00,32.2,-1.4,29.29,NE,37,0.0,0.0,23,0.00,,---,0.00,VWS V14.01,2013-02-08 14:47:00,
2013-02-08 08:49:00,32.2,-1.4,29.29,NE,37,0.0,0.0,23,0.00,,---,0.00,VWS V14.01,2013-02-08 14:49:00,
2013-02-08 08:52:00,32.2,-1.4,29.29,East,84,2.7,2.7,23,0.00,,---,0.00,VWS V14.01,2013-02-08 14:52:00,
2013-02-08 08:54:00,32.2,-1.4,29.29,ENE,60,0.0,0.0,23,0.00,,---,0.00,VWS V14.01,2013-02-08 14:54:00,
2013-02-08 08:57:00,32.2,-1.4,29.29,North,353,0.0,0.0,23,0.00,,---,0.00,VWS V14.01,2013-02-08 14:57:00,
2013-02-08 08:59:00,32.5,-1.1,29.29,NNW,348,0.0,0.0,23,0.00,,---,0.00,VWS V14.01,2013-02-08 14:59:00,
2013-02-08 09:02:00,32.5,-1.1,29.29,North,0,0.0,0.0,23,0.00,,---,0.00,VWS V14.01,2013-02-08 15:02:00,
2013-02-08 09:04:00,32.5,-1.1,29.29,North,350,0.0,0.0,23,0.00,,---,0.00,VWS V14.01,2013-02-08 15:04:00,
2013-02-08 09:07:00,32.7,-1.0,29.29,North,0,0.0,0.0,23,0.00,,---,0.00,VWS V14.01,2013-02-08 15:07:00,
2013-02-08 09:09:00,32.7,-1.0,29.29,North,0,0.0,0.0,23,0.00,,---,0.00,VWS V14.01,2013-02-08 15:09:00,
2013-02-08 09:12:00,32.7,-1.0,29.29,ENE,71,0.0,0.0,23,0.00,,---,0.00,VWS V14.01,2013-02-08 15:12:00,
2013-02-08 09:14:00,32.7,-1.0,29.29,NE,37,0.0,0.0,23,0.00,,---,0.00,VWS V14.01,2013-02-08 15:14:00,
2013-02-08 09:17:00,32.9,-0.8,29.29,ENE,57,0.0,0.0,23,0.00,,---,0.00,VWS V14.01,2013-02-08 15:17:00,
2013-02-08 09:19:00,32.9,-0.8,29.29,ENE,57,0.0,0.0,23,0.00,,---,0.00,VWS V14.01,2013-02-08 15:19:00,
2013-02-08 09:22:00,32.9,-0.8,29.29,ENE,75,3.1,3.1,23,0.00,,---,0.00,VWS V14.01,2013-02-08 15:22:00,
2013-02-08 09:24:00,33.1,-0.7,29.29,ENE,75,3.1,3.1,23,0.00,,---,0.00,VWS V14.01,2013-02-08 15:24:00,
2013-02-08 09:25:00,33.1,-0.7,29.29,ENE,75,3.1,3.1,23,0.00,,---,0.00,VWS V14.01,2013-02-08 15:25:00,
2013-02-08 09:27:00,33.1,-0.7,29.29,ENE,68,0.0,3.1,23,0.00,,---,0.00,VWS V14.01,2013-02-08 15:27:00,
2013-02-08 09:29:00,33.1,-0.7,29.29,ENE,68,0.0,0.0,23,0.00,,---,0.00,VWS V14.01,2013-02-08 15:29:00,
2013-02-08 09:30:00,33.1,-0.7,29.29,ENE,68,0.0,0.0,23,0.00,,---,0.00,VWS V14.01,2013-02-08 15:30:00,
2013-02-08 09:32:00,33.1,-0.7,29.29,ENE,71,2.7,2.7,23,0.00,,---,0.00,VWS V14.01,2013-02-08 15:32:00,
2013-02-08 09:33:00,33.1,-0.7,29.29,ENE,71,2.7,2.7,23,0.00,,---,0.00,VWS V14.01,2013-02-08 15:33:00,
2013-02-08 09:34:00,33.1,-0.7,29.29,ENE,71,2.7,2.7,23,0.00,,---,0.00,VWS V14.01,2013-02-08 15:34:00,
2013-02-08 09:35:00,33.1,-0.7,29.29,ENE,71,2.7,2.7,23,0.00,,---,0.00,VWS V14.01,2013-02-08 15:35:00,
2013-02-08 09:38:00,33.1,-0.7,29.29,North,349,2.7,2.7,23,0.00,,---,0.00,VWS V14.01,2013-02-08 15:38:00,
2013-02-08 09:40:00,33.1,-0.7,29.29,NNW,341,3.1,3.1,23,0.00,,---,0.00,VWS V14.01,2013-02-08 15:40:00,
2013-02-08 09:43:00,33.1,-0.7,29.29,North,353,0.0,0.0,23,0.00,,---,0.00,VWS V14.01,2013-02-08 15:43:00,
2013-02-08 09:45:00,33.1,-0.7,29.29,North,353,3.1,3.1,23,0.00,,---,0.00,VWS V14.01,2013-02-08 15:45:00,
2013-02-08 09:48:00,33.1,-0.7,29.29,NNW,342,0.0,0.0,23,0.00,,---,0.00,VWS V14.01,2013-02-08 15:48:00,
2013-02-08 09:50:00,33.1,-0.7,29.29,North,357,0.0,0.0,23,0.00,,---,0.00,VWS V14.01,2013-02-08 15:50:00,
2013-02-08 09:51:00,33.1,-0.7,29.29,NNE,30,0.0,0.0,23,0.00,,---,0.00,VWS V14.01,2013-02-08 15:51:00,
2013-02-08 09:53:00,33.1,-0.7,29.29,NNE,30,0.0,0.0,23,0.00,,---,0.00,VWS V14.01,2013-02-08 15:53:00,
2013-02-08 09:55:00,33.1,-0.7,29.29,NE,36,0.0,0.0,23,0.00,,---,0.00,VWS V14.01,2013-02-08 15:55:00,
2013-02-08 09:56:00,33.1,-0.7,29.29,NE,36,0.0,0.0,23,0.00,,---,0.00,VWS V14.01,2013-02-08 15:56:00,
2013-02-08 09:58:00,33.1,-0.7,29.29,NE,38,0.0,0.0,23,0.00,,---,0.00,VWS V14.01,2013-02-08 15:58:00,
2013-02-08 10:01:00,33.1,-0.7,29.29,North,5,2.7,2.7,23,0.00,,---,0.00,VWS V14.01,2013-02-08 16:01:00,
2013-02-08 10:03:00,33.3,-0.5,29.29,NE,47,0.0,0.0,23,0.00,,---,0.00,VWS V14.01,2013-02-08 16:03:00,
2013-02-08 10:06:00,33.4,-0.4,29.29,ENE,61,0.0,0.0,23,0.00,,---,0.00,VWS V14.01,2013-02-08 16:06:00,
2013-02-08 10:08:00,33.6,-0.2,29.29,ENE,61,0.0,0.0,23,0.00,,---,0.00,VWS V14.01,2013-02-08 16:08:00,
2013-02-08 10:11:00,33.6,-0.2,29.29,ENE,74,4.9,4.9,23,0.00,,---,0.00,VWS V14.01,2013-02-08 16:11:00,
2013-02-08 10:13:00,33.6,-0.2,29.29,East,82,0.0,4.9,23,0.00,,---,0.00,VWS V14.01,2013-02-08 16:13:00,
2013-02-08 10:16:00,33.6,-0.2,29.29,East,81,0.0,0.0,23,0.00,,---,0.00,VWS V14.01,2013-02-08 16:16:00,
2013-02-08 10:18:00,33.6,-0.2,29.29,NE,50,0.0,0.0,23,0.00,,---,0.00,VWS V14.01,2013-02-08 16:18:00,
2013-02-08 10:19:00,33.6,-0.2,29.29,NE,50,0.0,0.0,23,0.00,,---,0.00,VWS V14.01,2013-02-08 16:19:00,
2013-02-08 10:21:00,33.8,-1.0,29.29,NE,50,0.0,0.0,22,0.00,,---,0.00,VWS V14.01,2013-02-08 16:21:00,
2013-02-08 10:23:00,33.8,-1.0,29.29,North,357,0.0,0.0,22,0.00,,---,0.00,VWS V14.01,2013-02-08 16:23:00,
2013-02-08 10:24:00,33.8,-1.0,29.29,North,357,0.0,0.0,22,0.00,,---,0.00,VWS V14.01,2013-02-08 16:24:00,
2013-02-08 10:26:00,33.8,-1.0,29.29,North,357,0.0,0.0,22,0.00,,---,0.00,VWS V14.01,2013-02-08 16:26:00,
2013-02-08 10:28:00,33.8,-1.0,29.29,North,357,0.0,0.0,22,0.00,,---,0.00,VWS V14.01,2013-02-08 16:28:00,
2013-02-08 10:29:00,33.8,-1.0,29.29,ENE,74,2.7,2.7,22,0.00,,---,0.00,VWS V14.01,2013-02-08 16:29:00,
2013-02-08 10:31:00,33.8,-1.0,29.29,ENE,71,0.0,0.0,22,0.00,,---,0.00,VWS V14.01,2013-02-08 16:31:00,
2013-02-08 10:32:00,33.8,-1.0,29.29,ENE,71,0.0,0.0,22,0.00,,---,0.00,VWS V14.01,2013-02-08 16:32:00,
2013-02-08 10:33:00,33.8,-1.0,29.29,ENE,71,0.0,0.0,22,0.00,,---,0.00,VWS V14.01,2013-02-08 16:33:00,
2013-02-08 10:34:00,33.8,-1.0,29.29,North,6,0.0,0.0,22,0.00,,---,0.00,VWS V14.01,2013-02-08 16:34:00,
2013-02-08 10:36:00,33.8,-1.0,29.29,North,6,0.0,0.0,22,0.00,,---,0.00,VWS V14.01,2013-02-08 16:36:00,
2013-02-08 10:37:00,33.8,-1.0,29.29,North,6,0.0,0.0,22,0.00,,---,0.00,VWS V14.01,2013-02-08 16:37:00,
2013-02-08 10:38:00,34.0,-0.9,29.29,North,6,0.0,0.0,22,0.00,,---,0.00,VWS V14.01,2013-02-08 16:38:00,
2013-02-08 10:39:00,34.0,-0.9,29.29,North,6,0.0,0.0,22,0.00,,---,0.00,VWS V14.01,2013-02-08 16:39:00,
2013-02-08 10:41:00,34.0,-0.9,29.29,NNW,335,0.0,0.0,22,0.00,,---,0.00,VWS V14.01,2013-02-08 16:41:00,
2013-02-08 10:42:00,34.0,-0.9,29.29,NNW,335,0.0,0.0,22,0.00,,---,0.00,VWS V14.01,2013-02-08 16:42:00,
2013-02-08 10:43:00,34.0,-0.9,29.29,NNW,335,0.0,0.0,22,0.00,,---,0.00,VWS V14.01,2013-02-08 16:43:00,
2013-02-08 10:44:00,34.0,-0.9,29.29,NNW,335,0.0,0.0,22,0.00,,---,0.00,VWS V14.01,2013-02-08 16:44:00,
2013-02-08 10:46:00,34.0,-0.9,29.29,East,81,2.2,2.2,22,0.00,,---,0.00,VWS V14.01,2013-02-08 16:46:00,
2013-02-08 10:47:00,34.2,-0.7,29.29,East,81,2.2,2.2,22,0.00,,---,0.00,VWS V14.01,2013-02-08 16:47:00,
2013-02-08 10:48:00,34.2,-0.7,29.29,ENE,60,0.0,2.2,22,0.00,,---,0.00,VWS V14.01,2013-02-08 16:48:00,
2013-02-08 10:49:00,34.2,-0.7,29.29,ENE,60,0.0,0.0,22,0.00,,---,0.00,VWS V14.01,2013-02-08 16:49:00,
2013-02-08 10:51:00,34.2,-0.7,29.29,East,87,2.7,2.7,22,0.00,,---,0.00,VWS V14.01,2013-02-08 16:51:00,
2013-02-08 10:52:00,34.2,-0.7,29.29,East,87,2.7,2.7,22,0.00,,---,0.00,VWS V14.01,2013-02-08 16:52:00,
2013-02-08 10:53:00,34.2,-0.7,29.29,East,87,2.7,2.7,22,0.00,,---,0.00,VWS V14.01,2013-02-08 16:53:00,
2013-02-08 10:55:00,34.2,-0.7,29.29,East,87,2.7,2.7,22,0.00,,---,0.00,VWS V14.01,2013-02-08 16:55:00,
2013-02-08 10:57:00,34.3,-0.6,29.29,East,89,0.0,0.0,22,0.00,,---,0.00,VWS V14.01,2013-02-08 16:57:00,
2013-02-08 10:58:00,34.3,-0.6,29.29,NNE,31,0.0,0.0,22,0.00,,---,0.00,VWS V14.01,2013-02-08 16:58:00,
2013-02-08 10:59:00,34.3,-0.6,29.29,NNE,31,0.0,0.0,22,0.00,,---,0.00,VWS V14.01,2013-02-08 16:59:00,
2013-02-08 11:02:00,34.3,-0.6,29.29,NNE,31,0.0,0.0,22,0.00,,---,0.00,VWS V14.01,2013-02-08 17:02:00,
2013-02-08 11:04:00,34.3,-0.6,29.29,North,10,3.6,3.6,22,0.00,,---,0.00,VWS V14.01,2013-02-08 17:04:00,
2013-02-08 11:05:00,34.3,-0.6,29.29,North,10,3.6,3.6,22,0.00,,---,0.00,VWS V14.01,2013-02-08 17:05:00,
2013-02-08 11:07:00,34.3,-0.6,29.29,ENE,58,2.2,3.6,22,0.00,,---,0.00,VWS V14.01,2013-02-08 17:07:00,
2013-02-08 11:08:00,34.3,-0.6,29.29,ENE,58,2.2,3.6,22,0.00,,---,0.00,VWS V14.01,2013-02-08 17:08:00,
2013-02-08 11:09:00,34.5,-0.4,29.29,ENE,59,3.6,3.6,22,0.00,,---,0.00,VWS V14.01,2013-02-08 17:09:00,
2013-02-08 11:10:00,34.5,-0.4,29.29,NE,52,5.4,5.4,22,0.00,,---,0.00,VWS V14.01,2013-02-08 17:10:00,
2013-02-08 11:12:00,34.5,-0.4,29.29,NE,52,5.4,5.4,22,0.00,,---,0.00,VWS V14.01,2013-02-08 17:12:00,
2013-02-08 11:13:00,34.5,-0.4,29.29,NE,52,5.4,5.4,22,0.00,,---,0.00,VWS V14.01,2013-02-08 17:13:00,
2013-02-08 11:14:00,34.5,-0.4,29.29,NE,52,5.4,5.4,22,0.00,,---,0.00,VWS V14.01,2013-02-08 17:14:00,
2013-02-08 11:16:00,34.5,-0.4,29.29,NE,52,5.4,5.4,22,0.00,,---,0.00,VWS V14.01,2013-02-08 17:16:00,
2013-02-08 11:18:00,34.5,-0.4,29.29,North,9,0.0,0.0,22,0.00,,---,0.00,VWS V14.01,2013-02-08 17:18:00,
2013-02-08 11:19:00,34.5,-0.4,29.29,North,9,0.0,0.0,22,0.00,,---,0.00,VWS V14.01,2013-02-08 17:19:00,
2013-02-08 11:21:00,34.5,-0.4,29.29,ENE,59,0.0,0.0,22,0.00,,---,0.00,VWS V14.01,2013-02-08 17:21:00,
2013-02-08 11:23:00,34.5,-0.4,29.29,East,79,3.6,3.6,22,0.00,,---,0.00,VWS V14.01,2013-02-08 17:23:00,
2013-02-08 11:24:00,34.5,-0.4,29.29,East,79,0.0,0.0,22,0.00,,---,0.00,VWS V14.01,2013-02-08 17:24:00,
2013-02-08 11:26:00,34.5,-0.4,29.29,East,86,0.0,0.0,22,0.00,,---,0.00,VWS V14.01,2013-02-08 17:26:00,
2013-02-08 11:28:00,34.5,-0.4,29.29,East,86,0.0,0.0,22,0.00,,---,0.00,VWS V14.01,2013-02-08 17:28:00,
2013-02-08 11:30:00,34.5,-0.4,29.29,East,86,0.0,0.0,22,0.00,,---,0.00,VWS V14.01,2013-02-08 17:30:00,
2013-02-08 11:31:00,34.5,-0.4,29.29,NE,38,0.0,0.0,22,0.00,,---,0.00,VWS V14.01,2013-02-08 17:31:00,
2013-02-08 11:33:00,34.7,-0.2,29.29,NE,38,0.0,0.0,22,0.00,,---,0.00,VWS V14.01,2013-02-08 17:33:00,
2013-02-08 11:35:00,34.7,-0.2,29.29,NE,38,0.0,0.0,22,0.00,,---,0.00,VWS V14.01,2013-02-08 17:35:00,
2013-02-08 11:36:00,34.7,-0.2,29.29,NE,38,0.0,0.0,22,0.00,,---,0.00,VWS V14.01,2013-02-08 17:36:00,
2013-02-08 11:38:00,34.7,-0.2,29.29,NE,38,0.0,0.0,22,0.00,,---,0.00,VWS V14.01,2013-02-08 17:38:00,
2013-02-08 11:39:00,34.7,-0.2,29.29,NE,38,0.0,0.0,22,0.00,,---,0.00,VWS V14.01,2013-02-08 17:39:00,
2013-02-08 11:40:00,34.9,-0.1,29.29,NE,38,0.0,0.0,22,0.00,,---,0.00,VWS V14.01,2013-02-08 17:40:00,
2013-02-08 11:41:00,34.9,-0.1,29.29,NE,38,0.0,0.0,22,0.00,,---,0.00,VWS V14.01,2013-02-08 17:41:00,
2013-02-08 11:43:00,34.9,-0.1,29.29,ENE,59,0.0,0.0,22,0.00,,---,0.00,VWS V14.01,2013-02-08 17:43:00,
2013-02-08 11:44:00,34.9,-0.1,29.29,NE,51,0.0,0.0,22,0.00,,---,0.00,VWS V14.01,2013-02-08 17:44:00,
2013-02-08 11:45:00,34.9,-0.1,29.29,NE,51,0.0,0.0,22,0.00,,---,0.00,VWS V14.01,2013-02-08 17:45:00,
2013-02-08 11:46:00,34.9,-0.1,29.29,NE,51,0.0,0.0,22,0.00,,---,0.00,VWS V14.01,2013-02-08 17:46:00,
2013-02-08 11:48:00,34.9,-0.1,29.29,North,3,2.7,2.7,22,0.00,,---,0.00,VWS V14.01,2013-02-08 17:48:00,
2013-02-08 11:49:00,34.9,-0.1,29.29,North,3,2.7,2.7,22,0.00,,---,0.00,VWS V14.01,2013-02-08 17:49:00,
2013-02-08 11:50:00,35.2,0.2,29.29,North,3,2.7,2.7,22,0.00,,---,0.00,VWS V14.01,2013-02-08 17:50:00,
2013-02-08 11:51:00,35.2,0.2,29.29,North,3,2.7,2.7,22,0.00,,---,0.00,VWS V14.01,2013-02-08 17:51:00,
2013-02-08 11:53:00,35.2,0.2,29.29,North,1,0.0,2.7,22,0.00,,---,0.00,VWS V14.01,2013-02-08 17:53:00,
2013-02-08 11:54:00,35.2,0.2,29.29,North,1,0.0,0.0,22,0.00,,---,0.00,VWS V14.01,2013-02-08 17:54:00,
2013-02-08 11:56:00,35.2,0.2,29.29,ENE,72,0.0,0.0,22,0.00,,---,0.00,VWS V14.01,2013-02-08 17:56:00,
2013-02-08 11:58:00,35.2,0.2,29.29,ENE,72,0.0,0.0,22,0.00,,---,0.00,VWS V14.01,2013-02-08 17:58:00,
2013-02-08 12:00:00,35.6,0.5,29.29,ENE,72,0.0,0.0,22,0.00,,---,0.00,VWS V14.01,2013-02-08 18:00:00,
2013-02-08 12:01:00,35.6,0.5,29.29,ENE,72,0.0,0.0,22,0.00,,---,0.00,VWS V14.01,2013-02-08 18:01:00,
2013-02-08 12:04:00,35.6,0.5,29.29,SSE,157,0.0,0.0,22,0.00,,---,0.00,VWS V14.01,2013-02-08 18:04:00,
2013-02-08 12:05:00,35.6,0.5,29.29,SSE,157,0.0,0.0,22,0.00,,---,0.00,VWS V14.01,2013-02-08 18:05:00,
2013-02-08 12:06:00,35.6,0.5,29.29,SSE,157,0.0,0.0,22,0.00,,---,0.00,VWS V14.01,2013-02-08 18:06:00,
2013-02-08 12:09:00,36.3,1.1,29.29,SSE,157,0.0,0.0,22,0.00,,---,0.00,VWS V14.01,2013-02-08 18:09:00,
2013-02-08 12:10:00,36.3,1.1,29.29,SSE,157,0.0,0.0,22,0.00,,---,0.00,VWS V14.01,2013-02-08 18:10:00,
2013-02-08 12:11:00,36.3,1.1,29.29,SSW,206,0.0,2.2,22,0.00,,---,0.00,VWS V14.01,2013-02-08 18:11:00,
2013-02-08 12:14:00,36.3,1.1,29.29,SSW,206,0.0,0.0,22,0.00,,---,0.00,VWS V14.01,2013-02-08 18:14:00,
2013-02-08 12:15:00,36.3,1.1,29.29,East,99,0.0,0.0,22,0.00,,---,0.00,VWS V14.01,2013-02-08 18:15:00,
2013-02-08 12:16:00,36.3,1.1,29.29,East,83,0.0,0.0,22,0.00,,---,0.00,VWS V14.01,2013-02-08 18:16:00,
2013-02-08 12:19:00,36.9,1.6,29.29,East,83,0.0,0.0,22,0.00,,---,0.00,VWS V14.01,2013-02-08 18:19:00,
2013-02-08 12:20:00,36.9,1.6,29.29,East,83,0.0,0.0,22,0.00,,---,0.00,VWS V14.01,2013-02-08 18:20:00,
2013-02-08 12:21:00,36.9,1.6,29.29,South,176,0.0,0.0,22,0.00,,---,0.00,VWS V14.01,2013-02-08 18:21:00,
2013-02-08 12:24:00,36.9,1.6,29.29,South,185,0.0,0.0,22,0.00,,---,0.00,VWS V14.01,2013-02-08 18:24:00,
2013-02-08 12:25:00,36.9,1.6,29.29,South,185,0.0,0.0,22,0.00,,---,0.00,VWS V14.01,2013-02-08 18:25:00,
2013-02-08 12:26:00,36.9,1.6,29.29,South,188,0.0,0.0,22,0.00,,---,0.00,VWS V14.01,2013-02-08 18:26:00,
2013-02-08 12:27:00,36.9,1.6,29.29,South,188,0.0,0.0,22,0.00,,---,0.00,VWS V14.01,2013-02-08 18:27:00,
2013-02-08 12:30:00,36.9,1.6,29.29,SSW,207,2.2,2.7,22,0.00,,---,0.00,VWS V14.01,2013-02-08 18:30:00,
2013-02-08 12:31:00,36.9,1.6,29.29,SSW,207,2.2,2.2,22,0.00,,---,0.00,VWS V14.01,2013-02-08 18:31:00,
2013-02-08 12:32:00,36.9,1.6,29.29,SSW,207,2.2,2.2,22,0.00,,---,0.00,VWS V14.01,2013-02-08 18:32:00,
2013-02-08 12:35:00,36.9,1.6,29.29,SSW,207,2.2,2.2,22,0.00,,---,0.00,VWS V14.01,2013-02-08 18:35:00,
2013-02-08 12:36:00,37.2,1.9,29.29,SSW,207,2.2,2.2,22,0.00,,---,0.00,VWS V14.01,2013-02-08 18:36:00,
2013-02-08 12:37:00,37.2,1.9,29.29,West,265,3.1,3.1,22,0.00,,---,0.00,VWS V14.01,2013-02-08 18:37:00,
2013-02-08 12:40:00,37.2,1.9,29.29,WSW,248,2.7,2.7,22,0.00,,---,0.00,VWS V14.01,2013-02-08 18:40:00,
2013-02-08 12:42:00,37.4,1.0,29.29,SW,222,0.0,0.0,21,0.00,,---,0.00,VWS V14.01,2013-02-08 18:42:00,
2013-02-08 12:45:00,37.6,1.2,29.29,SW,222,0.0,0.0,21,0.00,,---,0.00,VWS V14.01,2013-02-08 18:45:00,
2013-02-08 12:47:00,37.6,1.2,29.29,SW,222,0.0,0.0,21,0.00,,---,0.00,VWS V14.01,2013-02-08 18:47:00,
2013-02-08 12:50:00,37.6,1.2,29.29,East,91,0.0,2.7,21,0.00,,---,0.00,VWS V14.01,2013-02-08 18:50:00,
2013-02-08 12:52:00,37.6,1.2,29.29,East,91,0.0,0.0,21,0.00,,---,0.00,VWS V14.01,2013-02-08 18:52:00,
2013-02-08 12:53:00,37.6,1.2,29.29,East,91,0.0,0.0,21,0.00,,---,0.00,VWS V14.01,2013-02-08 18:53:00,
2013-02-08 12:55:00,37.6,1.2,29.29,ENE,66,3.1,3.1,21,0.00,,---,0.00,VWS V14.01,2013-02-08 18:55:00,
2013-02-08 12:57:00,37.6,1.2,29.29,ENE,68,0.0,0.0,21,0.00,,---,0.00,VWS V14.01,2013-02-08 18:57:00,
2013-02-08 12:58:00,37.6,1.2,29.29,ENE,68,0.0,0.0,21,0.00,,---,0.00,VWS V14.01,2013-02-08 18:58:00,
2013-02-08 13:00:00,37.6,1.2,29.29,North,0,2.2,2.2,21,0.00,,---,0.00,VWS V14.01,2013-02-08 19:00:00,
2013-02-08 13:02:00,37.6,1.2,29.29,NW,325,0.0,0.0,21,0.00,,---,0.00,VWS V14.01,2013-02-08 19:02:00,
2013-02-08 13:03:00,37.6,1.2,29.29,NW,308,2.2,2.2,21,0.00,,---,0.00,VWS V14.01,2013-02-08 19:03:00,
2013-02-08 13:05:00,37.6,1.2,29.29,NW,308,2.2,2.2,21,0.00,,---,0.00,VWS V14.01,2013-02-08 19:05:00,
2013-02-08 13:07:00,37.6,1.2,29.29,South,191,0.0,0.0,21,0.00,,---,0.00,VWS V14.01,2013-02-08 19:07:00,
2013-02-08 13:08:00,37.6,1.2,29.29,SSW,213,2.7,2.7,21,0.00,,---,0.00,VWS V14.01,2013-02-08 19:08:00,
2013-02-08 13:10:00,37.6,1.2,29.29,SSW,213,2.7,2.7,21,0.00,,---,0.00,VWS V14.01,2013-02-08 19:10:00,
2013-02-08 13:12:00,37.9,1.5,29.29,SSW,213,2.7,2.7,21,0.00,,---,0.00,VWS V14.01,2013-02-08 19:12:00,
2013-02-08 13:13:00,37.9,1.5,29.29,SSW,213,2.7,2.7,21,0.00,,---,0.00,VWS V14.01,2013-02-08 19:13:00,
2013-02-08 13:16:00,37.9,1.5,29.29,SSE,155,3.6,3.6,21,0.00,,---,0.00,VWS V14.01,2013-02-08 19:16:00,
2013-02-08 13:17:00,37.9,1.5,29.29,SSE,155,0.0,0.0,21,0.00,,---,0.00,VWS V14.01,2013-02-08 19:17:00,
2013-02-08 13:18:00,37.9,1.5,29.29,SSE,155,0.0,0.0,21,0.00,,---,0.00,VWS V14.01,2013-02-08 19:18:00,
2013-02-08 13:21:00,37.9,1.5,29.29,SSE,155,0.0,0.0,21,0.00,,---,0.00,VWS V14.01,2013-02-08 19:21:00,
2013-02-08 13:23:00,38.5,2.0,29.29,SSW,210,0.0,0.0,21,0.00,,---,0.00,VWS V14.01,2013-02-08 19:23:00,
2013-02-08 13:26:00,38.5,2.0,29.29,SSW,211,3.1,3.1,21,0.00,,---,0.00,VWS V14.01,2013-02-08 19:26:00,
2013-02-08 13:28:00,38.5,2.0,29.29,SSW,211,3.1,3.1,21,0.00,,---,0.00,VWS V14.01,2013-02-08 19:28:00,
2013-02-08 13:31:00,38.8,2.3,29.29,WSW,239,0.0,0.0,21,0.00,,---,0.00,VWS V14.01,2013-02-08 19:31:00,
2013-02-08 13:33:00,38.8,2.3,29.29,SW,234,0.0,0.0,21,0.00,,---,0.00,VWS V14.01,2013-02-08 19:33:00,
2013-02-08 13:36:00,38.8,2.3,29.29,South,171,0.0,0.0,21,0.00,,---,0.00,VWS V14.01,2013-02-08 19:36:00,
2013-02-08 13:38:00,39.0,2.4,29.29,South,171,0.0,0.0,21,0.00,,---,0.00,VWS V14.01,2013-02-08 19:38:00,
2013-02-08 13:39:00,39.0,2.4,29.29,South,171,0.0,0.0,21,0.00,,---,0.00,VWS V14.01,2013-02-08 19:39:00,
2013-02-08 13:41:00,39.2,2.6,29.29,South,171,0.0,0.0,21,0.00,,---,0.00,VWS V14.01,2013-02-08 19:41:00,
2013-02-08 13:43:00,39.2,2.6,29.29,SSW,197,2.7,2.7,21,0.00,,---,0.00,VWS V14.01,2013-02-08 19:43:00,
2013-02-08 13:44:00,39.2,2.6,29.29,SSW,197,2.7,2.7,21,0.00,,---,0.00,VWS V14.01,2013-02-08 19:44:00,
2013-02-08 13:47:00,39.2,2.6,29.29,SSW,197,2.7,2.7,21,0.00,,---,0.00,VWS V14.01,2013-02-08 19:47:00,
2013-02-08 13:48:00,39.2,2.6,29.29,ENE,70,0.0,0.0,21,0.00,,---,0.00,VWS V14.01,2013-02-08 19:48:00,
2013-02-08 13:49:00,39.6,2.9,29.29,ENE,70,0.0,0.0,21,0.00,,---,0.00,VWS V14.01,2013-02-08 19:49:00,
2013-02-08 13:52:00,39.6,2.9,29.29,East,85,2.2,2.2,21,0.00,,---,0.00,VWS V14.01,2013-02-08 19:52:00,
2013-02-08 13:53:00,39.6,2.9,29.29,East,85,2.2,2.2,21,0.00,,---,0.00,VWS V14.01,2013-02-08 19:53:00,
2013-02-08 13:54:00,39.6,2.9,29.29,East,85,2.2,2.2,21,0.00,,---,0.00,VWS V14.01,2013-02-08 19:54:00,
2013-02-08 13:57:00,39.6,2.9,29.29,ENE,72,2.7,3.1,21,0.00,,---,0.00,VWS V14.01,2013-02-08 19:57:00,
2013-02-08 13:58:00,39.7,3.0,29.29,ENE,72,2.7,2.7,21,0.00,,---,0.00,VWS V14.01,2013-02-08 19:58:00,
2013-02-08 13:59:00,39.7,3.0,29.29,ENE,72,2.7,2.7,21,0.00,,---,0.00,VWS V14.01,2013-02-08 19:59:00,
2013-02-08 14:02:00,39.7,3.0,29.29,NNW,333,0.0,0.0,21,0.00,,---,0.00,VWS V14.01,2013-02-08 20:02:00,
2013-02-08 14:03:00,39.7,3.0,29.29,NNW,333,0.0,0.0,21,0.00,,---,0.00,VWS V14.01,2013-02-08 20:03:00,
2013-02-08 14:04:00,39.7,3.0,29.29,NNW,333,0.0,0.0,21,0.00,,---,0.00,VWS V14.01,2013-02-08 20:04:00,
2013-02-08 14:07:00,39.9,3.2,29.29,ESE,105,2.7,2.7,21,0.00,,---,0.00,VWS V14.01,2013-02-08 20:07:00,
2013-02-08 14:09:00,39.9,3.2,29.29,East,79,0.0,0.0,21,0.00,,---,0.00,VWS V14.01,2013-02-08 20:09:00,
2013-02-08 14:12:00,40.1,3.3,29.29,East,86,3.6,3.6,21,0.00,,---,0.00,VWS V14.01,2013-02-08 20:12:00,
2013-02-08 14:14:00,40.1,3.3,29.26,East,86,3.6,3.6,21,0.00,,---,0.00,VWS V14.01,2013-02-08 20:14:00,
2013-02-08 14:17:00,40.3,3.5,29.26,SSE,154,0.0,0.0,21,0.00,,---,0.00,VWS V14.01,2013-02-08 20:17:00,
2013-02-08 14:19:00,40.3,3.5,29.26,ESE,108,0.0,0.0,21,0.00,,---,0.00,VWS V14.01,2013-02-08 20:19:00,
2013-02-08 14:22:00,40.3,3.5,29.26,ESE,108,0.0,0.0,21,0.00,,---,0.00,VWS V14.01,2013-02-08 20:22:00,
2013-02-08 14:24:00,40.3,3.5,29.26,ESE,108,0.0,0.0,21,0.00,,---,0.00,VWS V14.01,2013-02-08 20:24:00,
2013-02-08 14:27:00,40.5,3.6,29.26,ESE,118,0.0,0.0,21,0.00,,---,0.00,VWS V14.01,2013-02-08 20:27:00,
2013-02-08 14:29:00,40.5,3.6,29.26,ESE,118,0.0,0.0,21,0.00,,---,0.00,VWS V14.01,2013-02-08 20:29:00,
2013-02-08 14:30:00,40.5,3.6,29.26,ESE,118,0.0,0.0,21,0.00,,---,0.00,VWS V14.01,2013-02-08 20:30:00,
2013-02-08 14:33:00,40.5,3.6,29.26,ESE,118,0.0,0.0,21,0.00,,---,0.00,VWS V14.01,2013-02-08 20:33:00,
2013-02-08 14:34:00,40.6,3.8,29.26,ESE,118,0.0,0.0,21,0.00,,---,0.00,VWS V14.01,2013-02-08 20:34:00,
2013-02-08 14:35:00,40.6,3.8,29.26,ESE,118,0.0,0.0,21,0.00,,---,0.00,VWS V14.01,2013-02-08 20:35:00,
2013-02-08 14:38:00,40.6,3.8,29.26,SSE,157,2.7,2.7,21,0.00,,---,0.00,VWS V14.01,2013-02-08 20:38:00,
2013-02-08 14:39:00,40.6,3.8,29.26,SSE,157,2.7,2.7,21,0.00,,---,0.00,VWS V14.01,2013-02-08 20:39:00,
2013-02-08 14:40:00,40.6,3.8,29.26,SSE,157,2.7,2.7,21,0.00,,---,0.00,VWS V14.01,2013-02-08 20:40:00,
2013-02-08 14:43:00,41.0,4.1,29.26,SSW,201,0.0,2.2,21,0.00,,---,0.00,VWS V14.01,2013-02-08 20:43:00,
2013-02-08 14:44:00,41.0,4.1,29.23,SSW,201,0.0,0.0,21,0.00,,---,0.00,VWS V14.01,2013-02-08 20:44:00,
2013-02-08 14:45:00,41.0,4.1,29.23,SSW,201,0.0,0.0,21,0.00,,---,0.00,VWS V14.01,2013-02-08 20:45:00,
2013-02-08 14:48:00,41.0,4.1,29.23,East,84,0.0,0.0,21,0.00,,---,0.00,VWS V14.01,2013-02-08 20:48:00,
2013-02-08 14:49:00,41.0,4.1,29.23,ENE,68,0.0,0.0,21,0.00,,---,0.00,VWS V14.01,2013-02-08 20:49:00,
2013-02-08 14:50:00,41.0,4.1,29.23,ENE,68,0.0,0.0,21,0.00,,---,0.00,VWS V14.01,2013-02-08 20:50:00,
2013-02-08 14:53:00,41.2,4.2,29.23,East,81,2.7,2.7,21,0.00,,---,0.00,VWS V14.01,2013-02-08 20:53:00,
2013-02-08 14:54:00,41.2,4.2,29.23,SE,143,0.0,0.0,21,0.00,,---,0.00,VWS V14.01,2013-02-08 20:54:00,
2013-02-08 14:55:00,41.2,4.2,29.23,South,174,3.1,3.1,21,0.00,,---,0.00,VWS V14.01,2013-02-08 20:55:00,
2013-02-08 14:58:00,41.2,4.2,29.23,South,190,0.0,0.0,21,0.00,,---,0.00,VWS V14.01,2013-02-08 20:58:00,
2013-02-08 14:59:00,41.2,4.2,29.23,South,190,0.0,0.0,21,0.00,,---,0.00,VWS V14.01,2013-02-08 20:59:00,
2013-02-08 15:00:00,41.2,4.2,29.23,South,187,0.0,0.0,21,0.00,,---,0.00,VWS V14.01,2013-02-08 21:00:00,
2013-02-08 15:03:00,41.4,4.4,29.23,South,178,0.0,0.0,21,0.00,,---,0.00,VWS V14.01,2013-02-08 21:03:00,
2013-02-08 15:04:00,41.4,4.4,29.23,SSE,163,0.0,0.0,21,0.00,,---,0.00,VWS V14.01,2013-02-08 21:04:00,
2013-02-08 15:05:00,41.4,4.4,29.23,SSE,163,0.0,0.0,21,0.00,,---,0.00,VWS V14.01,2013-02-08 21:05:00,
2013-02-08 15:08:00,41.4,4.4,29.23,NE,50,0.0,0.0,21,0.00,,---,0.00,VWS V14.01,2013-02-08 21:08:00,
2013-02-08 15:10:00,41.4,4.4,29.23,NE,50,0.0,0.0,21,0.00,,---,0.00,VWS V14.01,2013-02-08 21:10:00,
2013-02-08 15:13:00,41.5,4.5,29.23,ESE,115,0.0,0.0,21,0.00,,---,0.00,VWS V14.01,2013-02-08 21:13:00,
2013-02-08 15:15:00,41.5,4.5,29.23,ESE,115,0.0,0.0,21,0.00,,---,0.00,VWS V14.01,2013-02-08 21:15:00,
2013-02-08 15:19:00,41.5,4.5,29.23,ESE,112,0.0,0.0,21,0.00,,---,0.00,VWS V14.01,2013-02-08 21:19:00,
2013-02-08 15:20:00,41.5,4.5,29.23,ESE,112,0.0,0.0,21,0.00,,---,0.00,VWS V14.01,2013-02-08 21:20:00,
2013-02-08 15:24:00,41.5,4.5,29.23,ESE,121,0.0,0.0,21,0.00,,---,0.00,VWS V14.01,2013-02-08 21:24:00,
2013-02-08 15:25:00,41.5,4.5,29.23,ESE,121,0.0,0.0,21,0.00,,---,0.00,VWS V14.01,2013-02-08 21:25:00,
2013-02-08 15:29:00,41.9,4.8,29.23,ESE,109,0.0,0.0,21,0.00,,---,0.00,VWS V14.01,2013-02-08 21:29:00,
2013-02-08 15:30:00,41.9,4.8,29.23,ESE,109,0.0,0.0,21,0.00,,---,0.00,VWS V14.01,2013-02-08 21:30:00,
2013-02-08 15:31:00,41.9,4.8,29.23,ESE,109,0.0,0.0,21,0.00,,---,0.00,VWS V14.01,2013-02-08 21:31:00,
2013-02-08 15:34:00,41.9,4.8,29.23,East,83,0.0,0.0,21,0.00,,---,0.00,VWS V14.01,2013-02-08 21:34:00,
2013-02-08 15:35:00,41.9,4.8,29.23,ENE,78,0.0,4.5,21,0.00,,---,0.00,VWS V14.01,2013-02-08 21:35:00,
2013-02-08 15:36:00,41.9,4.8,29.23,ENE,78,0.0,0.0,21,0.00,,---,0.00,VWS V14.01,2013-02-08 21:36:00,
2013-02-08 15:39:00,42.1,5.0,29.23,SSW,194,0.0,0.0,21,0.00,,---,0.00,VWS V14.01,2013-02-08 21:39:00,
2013-02-08 15:40:00,42.1,5.0,29.23,SSW,194,0.0,0.0,21,0.00,,---,0.00,VWS V14.01,2013-02-08 21:40:00,
2013-02-08 15:41:00,42.1,5.0,29.23,East,96,0.0,0.0,21,0.00,,---,0.00,VWS V14.01,2013-02-08 21:41:00,
2013-02-08 15:44:00,42.1,5.0,29.21,ESE,105,0.0,0.0,21,0.00,,---,0.00,VWS V14.01,2013-02-08 21:44:00,
2013-02-08 15:45:00,42.1,5.0,29.21,ESE,105,0.0,0.0,21,0.00,,---,0.00,VWS V14.01,2013-02-08 21:45:00,
2013-02-08 15:46:00,42.1,5.0,29.21,ESE,103,0.0,0.0,21,0.00,,---,0.00,VWS V14.01,2013-02-08 21:46:00,
2013-02-08 15:49:00,42.3,5.1,29.21,East,87,3.1,3.1,21,0.00,,---,0.00,VWS V14.01,2013-02-08 21:49:00,
2013-02-08 15:50:00,42.3,5.1,29.21,ENE,67,2.2,2.2,21,0.00,,---,0.00,VWS V14.01,2013-02-08 21:50:00,
2013-02-08 15:51:00,42.3,5.1,29.21,ENE,67,2.2,2.2,21,0.00,,---,0.00,VWS V14.01,2013-02-08 21:51:00,
2013-02-08 15:54:00,42.3,5.1,29.21,ENE,67,0.0,0.0,21,0.00,,---,0.00,VWS V14.01,2013-02-08 21:54:00,
2013-02-08 15:55:00,42.3,5.1,29.21,East,87,0.0,0.0,21,0.00,,---,0.00,VWS V14.01,2013-02-08 21:55:00,
2013-02-08 15:56:00,42.3,5.1,29.21,East,87,0.0,0.0,21,0.00,,---,0.00,VWS V14.01,2013-02-08 21:56:00,
2013-02-08 15:59:00,42.3,5.1,29.21,East,87,0.0,0.0,21,0.00,,---,0.00,VWS V14.01,2013-02-08 21:59:00,
2013-02-08 16:00:00,42.3,5.1,29.23,South,172,0.0,0.0,21,0.00,,---,0.00,VWS V14.01,2013-02-08 22:00:00,
2013-02-08 16:01:00,42.3,5.1,29.23,South,172,0.0,0.0,21,0.00,,---,0.00,VWS V14.01,2013-02-08 22:01:00,
2013-02-08 16:04:00,42.3,5.1,29.23,SE,144,0.0,0.0,21,0.00,,---,0.00,VWS V14.01,2013-02-08 22:04:00,
2013-02-08 16:05:00,42.3,5.1,29.23,SE,143,0.0,0.0,21,0.00,,---,0.00,VWS V14.01,2013-02-08 22:05:00,
2013-02-08 16:06:00,42.3,5.1,29.23,SE,143,0.0,0.0,21,0.00,,---,0.00,VWS V14.01,2013-02-08 22:06:00,
2013-02-08 16:09:00,42.4,5.3,29.23,East,87,2.7,2.7,21,0.00,,---,0.00,VWS V14.01,2013-02-08 22:09:00,
2013-02-08 16:11:00,42.4,5.3,29.23,East,87,2.7,2.7,21,0.00,,---,0.00,VWS V14.01,2013-02-08 22:11:00,
2013-02-08 16:14:00,42.3,5.1,29.23,NE,52,2.2,2.2,21,0.00,,---,0.00,VWS V14.01,2013-02-08 22:14:00,
2013-02-08 16:16:00,42.3,5.1,29.23,NE,52,2.2,2.2,21,0.00,,---,0.00,VWS V14.01,2013-02-08 22:16:00,
2013-02-08 16:19:00,42.3,5.1,29.23,East,85,0.0,0.0,21,0.00,,---,0.00,VWS V14.01,2013-02-08 22:19:00,
2013-02-08 16:21:00,42.3,5.1,29.23,East,85,0.0,0.0,21,0.00,,---,0.00,VWS V14.01,2013-02-08 22:21:00,
2013-02-08 16:25:00,42.3,5.1,29.23,ENE,63,3.1,3.1,21,0.00,,---,0.00,VWS V14.01,2013-02-08 22:25:00,
2013-02-08 16:26:00,42.3,5.1,29.23,ENE,63,3.1,3.1,21,0.00,,---,0.00,VWS V14.01,2013-02-08 22:26:00,
2013-02-08 16:30:00,42.3,5.1,29.23,East,82,0.0,0.0,21,0.00,,---,0.00,VWS V14.01,2013-02-08 22:30:00,
2013-02-08 16:31:00,42.3,5.1,29.23,East,82,0.0,0.0,21,0.00,,---,0.00,VWS V14.01,2013-02-08 22:31:00,
2013-02-08 16:32:00,41.9,4.8,29.23,East,87,0.0,0.0,21,0.00,,---,0.00,VWS V14.01,2013-02-08 22:32:00,
2013-02-08 16:35:00,41.9,4.8,29.23,East,87,0.0,0.0,21,0.00,,---,0.00,VWS V14.01,2013-02-08 22:35:00,
2013-02-08 16:36:00,41.9,4.8,29.23,East,94,0.0,0.0,21,0.00,,---,0.00,VWS V14.01,2013-02-08 22:36:00,
2013-02-08 16:37:00,41.9,4.8,29.23,East,94,0.0,0.0,21,0.00,,---,0.00,VWS V14.01,2013-02-08 22:37:00,
2013-02-08 16:40:00,41.9,4.8,29.23,ENE,75,0.0,0.0,21,0.00,,---,0.00,VWS V14.01,2013-02-08 22:40:00,
2013-02-08 16:41:00,41.9,4.8,29.23,East,83,3.1,3.1,21,0.00,,---,0.00,VWS V14.01,2013-02-08 22:41:00,
2013-02-08 16:42:00,41.9,4.8,29.23,East,83,3.1,3.1,21,0.00,,---,0.00,VWS V14.01,2013-02-08 22:42:00,
2013-02-08 16:45:00,41.5,4.5,29.23,ENE,78,0.0,0.0,21,0.00,,---,0.00,VWS V14.01,2013-02-08 22:45:00,
2013-02-08 16:46:00,41.5,4.5,29.23,ENE,78,0.0,0.0,21,0.00,,---,0.00,VWS V14.01,2013-02-08 22:46:00,
2013-02-08 16:47:00,41.5,4.5,29.23,ENE,78,0.0,0.0,21,0.00,,---,0.00,VWS V14.01,2013-02-08 22:47:00,
2013-02-08 16:50:00,41.5,4.5,29.23,East,100,4.0,4.0,21,0.00,,---,0.00,VWS V14.01,2013-02-08 22:50:00,
2013-02-08 16:51:00,41.5,4.5,29.23,East,100,4.0,4.0,21,0.00,,---,0.00,VWS V14.01,2013-02-08 22:51:00,
2013-02-08 16:52:00,41.5,4.5,29.23,East,89,3.1,4.0,21,0.00,,---,0.00,VWS V14.01,2013-02-08 22:52:00,
2013-02-08 16:55:00,41.5,4.5,29.23,East,90,2.2,2.2,21,0.00,,---,0.00,VWS V14.01,2013-02-08 22:55:00,
2013-02-08 16:56:00,41.2,4.2,29.23,East,90,2.2,2.2,21,0.00,,---,0.00,VWS V14.01,2013-02-08 22:56:00,
2013-02-08 16:57:00,41.2,4.2,29.23,East,81,4.9,4.9,21,0.00,,---,0.00,VWS V14.01,2013-02-08 22:57:00,
2013-02-08 17:00:00,41.2,4.2,29.23,ENE,73,3.6,3.6,21,0.00,,---,0.00,VWS V14.01,2013-02-08 23:00:00,
2013-02-08 17:01:00,41.2,4.2,29.23,ENE,73,3.6,3.6,21,0.00,,---,0.00,VWS V14.01,2013-02-08 23:01:00,
2013-02-08 17:02:00,41.2,4.2,29.23,ENE,73,3.6,3.6,21,0.00,,---,0.00,VWS V14.01,2013-02-08 23:02:00,
2013-02-08 17:03:00,41.2,4.2,29.23,East,85,0.0,3.6,21,0.00,,---,0.00,VWS V14.01,2013-02-08 23:03:00,
2013-02-08 17:05:00,41.2,4.2,29.23,East,84,2.7,2.7,21,0.00,,---,0.00,VWS V14.01,2013-02-08 23:05:00,
2013-02-08 17:06:00,41.2,4.2,29.23,East,84,2.7,2.7,21,0.00,,---,0.00,VWS V14.01,2013-02-08 23:06:00,
2013-02-08 17:07:00,41.2,4.2,29.23,ENE,71,3.1,3.1,21,0.00,,---,0.00,VWS V14.01,2013-02-08 23:07:00,
2013-02-08 17:08:00,41.2,4.2,29.23,ENE,71,3.1,3.1,21,0.00,,---,0.00,VWS V14.01,2013-02-08 23:08:00,
2013-02-08 17:10:00,41.2,4.2,29.23,East,92,3.1,3.1,21,0.00,,---,0.00,VWS V14.01,2013-02-08 23:10:00,
2013-02-08 17:11:00,41.2,4.2,29.23,East,92,3.1,3.1,21,0.00,,---,0.00,VWS V14.01,2013-02-08 23:11:00,
2013-02-08 17:12:00,41.2,4.2,29.23,East,87,3.1,3.1,21,0.00,,---,0.00,VWS V14.01,2013-02-08 23:12:00,
2013-02-08 17:13:00,41.2,4.2,29.23,East,87,3.1,3.1,21,0.00,,---,0.00,VWS V14.01,2013-02-08 23:13:00,
2013-02-08 17:15:00,40.6,3.8,29.23,East,83,0.0,0.0,21,0.00,,---,0.00,VWS V14.01,2013-02-08 23:15:00,
2013-02-08 17:16:00,40.6,3.8,29.23,East,83,0.0,0.0,21,0.00,,---,0.00,VWS V14.01,2013-02-08 23:16:00,
2013-02-08 17:17:00,40.6,3.8,29.23,East,82,0.0,0.0,21,0.00,,---,0.00,VWS V14.01,2013-02-08 23:17:00,
2013-02-08 17:18:00,40.6,3.8,29.23,East,82,0.0,0.0,21,0.00,,---,0.00,VWS V14.01,2013-02-08 23:18:00,
2013-02-08 17:21:00,40.5,3.6,29.23,East,82,0.0,0.0,21,0.00,,---,0.00,VWS V14.01,2013-02-08 23:21:00,
2013-02-08 17:22:00,40.5,3.6,29.23,East,82,0.0,0.0,21,0.00,,---,0.00,VWS V14.01,2013-02-08 23:22:00,
2013-02-08 17:23:00,40.5,3.6,29.23,East,82,0.0,0.0,21,0.00,,---,0.00,VWS V14.01,2013-02-08 23:23:00,
2013-02-08 17:26:00,40.5,3.6,29.23,East,100,3.6,3.6,21,0.00,,---,0.00,VWS V14.01,2013-02-08 23:26:00,
2013-02-08 17:27:00,40.5,3.6,29.23,ENE,75,0.0,0.0,21,0.00,,---,0.00,VWS V14.01,2013-02-08 23:27:00,
2013-02-08 17:29:00,40.5,3.6,29.23,ENE,75,0.0,0.0,21,0.00,,---,0.00,VWS V14.01,2013-02-08 23:29:00,
2013-02-08 17:31:00,40.5,3.6,29.23,ENE,66,3.1,3.1,21,0.00,,---,0.00,VWS V14.01,2013-02-08 23:31:00,
2013-02-08 17:32:00,40.5,3.6,29.23,ENE,66,3.1,3.1,21,0.00,,---,0.00,VWS V14.01,2013-02-08 23:32:00,
2013-02-08 17:34:00,40.5,3.6,29.23,ENE,74,0.0,3.1,21,0.00,,---,0.00,VWS V14.01,2013-02-08 23:34:00,
2013-02-08 17:36:00,40.5,3.6,29.23,ESE,109,0.0,0.0,21,0.00,,---,0.00,VWS V14.01,2013-02-08 23:36:00,
2013-02-08 17:37:00,40.5,3.6,29.23,ESE,109,0.0,0.0,21,0.00,,---,0.00,VWS V14.01,2013-02-08 23:37:00,
2013-02-08 17:38:00,40.5,3.6,29.23,ESE,109,0.0,0.0,21,0.00,,---,0.00,VWS V14.01,2013-02-08 23:38:00,
2013-02-08 17:39:00,40.5,3.6,29.23,East,91,0.0,0.0,21,0.00,,---,0.00,VWS V14.01,2013-02-08 23:39:00,
2013-02-08 17:41:00,40.5,3.6,29.23,East,91,0.0,0.0,21,0.00,,---,0.00,VWS V14.01,2013-02-08 23:41:00,
2013-02-08 17:42:00,40.5,3.6,29.23,East,91,0.0,0.0,21,0.00,,---,0.00,VWS V14.01,2013-02-08 23:42:00,
2013-02-08 17:43:00,39.6,2.9,29.23,East,91,0.0,0.0,21,0.00,,---,0.00,VWS V14.01,2013-02-08 23:43:00,
2013-02-08 17:44:00,39.6,2.9,29.23,East,91,0.0,0.0,21,0.00,,---,0.00,VWS V14.01,2013-02-08 23:44:00,
2013-02-08 17:46:00,39.4,2.7,29.23,East,87,2.7,2.7,21,0.00,,---,0.00,VWS V14.01,2013-02-08 23:46:00,
2013-02-08 17:47:00,39.4,2.7,29.23,East,87,0.0,2.7,21,0.00,,---,0.00,VWS V14.01,2013-02-08 23:47:00,
2013-02-08 17:48:00,39.4,2.7,29.23,East,85,0.0,3.1,21,0.00,,---,0.00,VWS V14.01,2013-02-08 23:48:00,
2013-02-08 17:49:00,39.4,2.7,29.23,East,85,0.0,0.0,21,0.00,,---,0.00,VWS V14.01,2013-02-08 23:49:00,
2013-02-08 17:51:00,39.2,2.6,29.23,East,85,0.0,0.0,21,0.00,,---,0.00,VWS V14.01,2013-02-08 23:51:00,
2013-02-08 17:52:00,39.2,2.6,29.23,ENE,73,0.0,0.0,21,0.00,,---,0.00,VWS V14.01,2013-02-08 23:52:00,
2013-02-08 17:53:00,39.2,2.6,29.23,ENE,74,2.2,2.2,21,0.00,,---,0.00,VWS V14.01,2013-02-08 23:53:00,
2013-02-08 17:54:00,39.2,2.6,29.23,ENE,74,0.0,0.0,21,0.00,,---,0.00,VWS V14.01,2013-02-08 23:54:00,
2013-02-08 17:56:00,39.2,2.6,29.23,ENE,74,0.0,0.0,21,0.00,,---,0.00,VWS V14.01,2013-02-08 23:56:00,
2013-02-08 17:57:00,39.2,2.6,29.23,East,81,0.0,0.0,21,0.00,,---,0.00,VWS V14.01,2013-02-08 23:57:00,
2013-02-08 17:58:00,39.2,2.6,29.23,East,81,2.2,2.2,21,0.00,,---,0.00,VWS V14.01,2013-02-08 23:58:00,
2013-02-08 18:00:00,39.2,2.6,29.23,ENE,67,5.4,5.4,21,0.00,,---,0.00,VWS V14.01,2013-02-09 00:00:00,
2013-02-08 18:02:00,38.8,2.3,29.23,ENE,71,4.0,4.0,21,0.00,,---,0.00,VWS V14.01,2013-02-09 00:02:00,
2013-02-08 18:03:00,38.8,2.3,29.21,ENE,70,4.0,4.0,21,0.00,,---,0.00,VWS V14.01,2013-02-09 00:03:00,
2013-02-08 18:05:00,38.8,2.3,29.21,East,89,0.0,4.0,21,0.00,,---,0.00,VWS V14.01,2013-02-09 00:05:00,
2013-02-08 18:07:00,38.8,2.3,29.21,East,89,0.0,0.0,21,0.00,,---,0.00,VWS V14.01,2013-02-09 00:07:00,
2013-02-08 18:08:00,38.8,2.3,29.21,East,89,0.0,0.0,21,0.00,,---,0.00,VWS V14.01,2013-02-09 00:08:00,
2013-02-08 18:10:00,38.3,1.8,29.21,East,89,0.0,0.0,21,0.00,,---,0.00,VWS V14.01,2013-02-09 00:10:00,
2013-02-08 18:12:00,38.3,1.8,29.21,East,89,0.0,0.0,21,0.00,,---,0.00,VWS V14.01,2013-02-09 00:12:00,
2013-02-08 18:13:00,38.3,1.8,29.21,East,89,0.0,0.0,21,0.00,,---,0.00,VWS V14.01,2013-02-09 00:13:00,
2013-02-08 18:15:00,38.3,1.8,29.21,East,89,0.0,0.0,21,0.00,,---,0.00,VWS V14.01,2013-02-09 00:15:00,
2013-02-08 18:17:00,37.9,1.5,29.21,East,89,0.0,0.0,21,0.00,,---,0.00,VWS V14.01,2013-02-09 00:17:00,
2013-02-08 18:18:00,37.9,1.5,29.21,East,99,0.0,0.0,21,0.00,,---,0.00,VWS V14.01,2013-02-09 00:18:00,
2013-02-08 18:20:00,37.9,1.5,29.21,East,99,0.0,0.0,21,0.00,,---,0.00,VWS V14.01,2013-02-09 00:20:00,
2013-02-08 18:22:00,37.9,1.5,29.21,East,99,0.0,0.0,21,0.00,,---,0.00,VWS V14.01,2013-02-09 00:22:00,
2013-02-08 18:23:00,37.9,1.5,29.21,East,99,0.0,0.0,21,0.00,,---,0.00,VWS V14.01,2013-02-09 00:23:00,
2013-02-08 18:26:00,37.9,1.5,29.21,East,99,0.0,0.0,21,0.00,,---,0.00,VWS V14.01,2013-02-09 00:26:00,
2013-02-08 18:27:00,37.9,1.5,29.21,East,99,0.0,0.0,21,0.00,,---,0.00,VWS V14.01,2013-02-09 00:27:00,
2013-02-08 18:28:00,37.4,1.0,29.21,East,99,0.0,0.0,21,0.00,,---,0.00,VWS V14.01,2013-02-09 00:28:00,
2013-02-08 18:31:00,37.4,1.0,29.23,East,99,0.0,0.0,21,0.00,,---,0.00,VWS V14.01,2013-02-09 00:31:00,
2013-02-08 18:32:00,37.4,1.0,29.23,East,94,0.0,0.0,21,0.00,,---,0.00,VWS V14.01,2013-02-09 00:32:00,
2013-02-08 18:33:00,37.4,1.0,29.23,East,94,0.0,0.0,21,0.00,,---,0.00,VWS V14.01,2013-02-09 00:33:00,
2013-02-08 18:36:00,37.0,1.7,29.23,East,94,2.7,2.7,22,0.00,,---,0.00,VWS V14.01,2013-02-09 00:36:00,
2013-02-08 18:37:00,36.9,1.6,29.23,East,94,2.7,2.7,22,0.00,,---,0.00,VWS V14.01,2013-02-09 00:37:00,
2013-02-08 18:38:00,36.9,1.6,29.23,East,94,2.7,2.7,22,0.00,,---,0.00,VWS V14.01,2013-02-09 00:38:00,
2013-02-08 18:41:00,36.9,1.6,29.23,East,80,2.2,2.7,22,0.00,,---,0.00,VWS V14.01,2013-02-09 00:41:00,
2013-02-08 18:42:00,36.9,1.6,29.23,East,80,2.2,2.2,22,0.00,,---,0.00,VWS V14.01,2013-02-09 00:42:00,
2013-02-08 18:43:00,36.9,1.6,29.21,East,84,3.6,3.6,22,0.00,,---,0.00,VWS V14.01,2013-02-09 00:43:00,
2013-02-08 18:46:00,36.5,1.3,29.21,East,100,0.0,0.0,22,0.00,,---,0.00,VWS V14.01,2013-02-09 00:46:00,
2013-02-08 18:47:00,36.5,1.3,29.21,East,100,0.0,0.0,22,0.00,,---,0.00,VWS V14.01,2013-02-09 00:47:00,
2013-02-08 18:48:00,36.5,1.3,29.21,East,100,0.0,0.0,22,0.00,,---,0.00,VWS V14.01,2013-02-09 00:48:00,
2013-02-08 18:51:00,36.5,1.3,29.21,ESE,114,3.1,3.1,22,0.00,,---,0.00,VWS V14.01,2013-02-09 00:51:00,
2013-02-08 18:52:00,36.5,1.3,29.21,ESE,114,3.1,3.1,22,0.00,,---,0.00,VWS V14.01,2013-02-09 00:52:00,
2013-02-08 18:53:00,36.5,1.3,29.21,East,93,3.6,3.6,22,0.00,,---,0.00,VWS V14.01,2013-02-09 00:53:00,
2013-02-08 18:57:00,36.0,0.8,29.21,East,93,0.0,0.0,22,0.00,,---,0.00,VWS V14.01,2013-02-09 00:57:00,
2013-02-08 18:58:00,36.0,0.8,29.21,East,95,2.7,2.7,22,0.00,,---,0.00,VWS V14.01,2013-02-09 00:58:00,
2013-02-08 19:02:00,35.8,0.7,29.23,ENE,62,3.1,3.1,22,0.00,,---,0.00,VWS V14.01,2013-02-09 01:02:00,
2013-02-08 19:03:00,35.8,0.7,29.23,East,89,0.0,0.0,22,0.00,,---,0.00,VWS V14.01,2013-02-09 01:03:00,
2013-02-08 19:07:00,35.4,0.4,29.23,East,93,0.0,3.1,22,0.00,,---,0.00,VWS V14.01,2013-02-09 01:07:00,
2013-02-08 19:08:00,35.4,0.4,29.23,East,93,0.0,0.0,22,0.00,,---,0.00,VWS V14.01,2013-02-09 01:08:00,
2013-02-08 19:12:00,35.4,0.4,29.23,East,87,0.0,0.0,22,0.00,,---,0.00,VWS V14.01,2013-02-09 01:12:00,
2013-02-08 19:13:00,35.1,0.1,29.23,East,87,0.0,0.0,22,0.00,,---,0.00,VWS V14.01,2013-02-09 01:13:00,
2013-02-08 19:17:00,35.1,0.1,29.23,East,87,0.0,0.0,22,0.00,,---,0.00,VWS V14.01,2013-02-09 01:17:00,
2013-02-08 19:18:00,35.1,0.1,29.23,East,87,0.0,0.0,22,0.00,,---,0.00,VWS V14.01,2013-02-09 01:18:00,
2013-02-08 19:22:00,34.7,-0.2,29.23,East,86,0.0,0.0,22,0.00,,---,0.00,VWS V14.01,2013-02-09 01:22:00,
2013-02-08 19:23:00,34.7,-0.2,29.23,East,86,0.0,0.0,22,0.00,,---,0.00,VWS V14.01,2013-02-09 01:23:00,
2013-02-08 19:27:00,34.5,-0.4,29.23,East,95,2.2,2.2,22,0.00,,---,0.00,VWS V14.01,2013-02-09 01:27:00,
2013-02-08 19:28:00,34.5,-0.4,29.23,East,86,0.0,2.2,22,0.00,,---,0.00,VWS V14.01,2013-02-09 01:28:00,
2013-02-08 19:33:00,34.3,-0.6,29.23,ENE,72,0.0,0.0,22,0.00,,---,0.00,VWS V14.01,2013-02-09 01:33:00,
2013-02-08 19:34:00,34.3,-0.6,29.23,ESE,108,0.0,0.0,22,0.00,,---,0.00,VWS V14.01,2013-02-09 01:34:00,
2013-02-08 19:38:00,34.3,-0.6,29.23,East,85,3.1,3.1,22,0.00,,---,0.00,VWS V14.01,2013-02-09 01:38:00,
2013-02-08 19:39:00,34.3,-0.6,29.23,East,85,0.0,0.0,22,0.00,,---,0.00,VWS V14.01,2013-02-09 01:39:00,
2013-02-08 19:43:00,34.0,-0.9,29.23,ENE,65,2.7,2.7,22,0.00,,---,0.00,VWS V14.01,2013-02-09 01:43:00,
2013-02-08 19:44:00,34.0,-0.9,29.23,ENE,65,2.7,2.7,22,0.00,,---,0.00,VWS V14.01,2013-02-09 01:44:00,
2013-02-08 19:48:00,34.0,-0.9,29.23,ENE,78,2.7,2.7,22,0.00,,---,0.00,VWS V14.01,2013-02-09 01:48:00,
2013-02-08 19:49:00,33.8,-1.0,29.23,ENE,78,2.7,2.7,22,0.00,,---,0.00,VWS V14.01,2013-02-09 01:49:00,
2013-02-08 19:53:00,33.8,-1.0,29.23,East,82,3.6,3.6,22,0.00,,---,0.00,VWS V14.01,2013-02-09 01:53:00,
2013-02-08 19:54:00,33.8,-1.0,29.23,East,82,3.6,3.6,22,0.00,,---,0.00,VWS V14.01,2013-02-09 01:54:00,
2013-02-08 19:55:00,33.8,-1.0,29.23,East,82,3.6,3.6,22,0.00,,---,0.00,VWS V14.01,2013-02-09 01:55:00,
2013-02-08 19:58:00,33.6,-0.2,29.23,East,89,3.1,3.1,23,0.00,,---,0.00,VWS V14.01,2013-02-09 01:58:00,
2013-02-08 19:59:00,33.6,-0.2,29.23,East,89,3.1,3.1,23,0.00,,---,0.00,VWS V14.01,2013-02-09 01:59:00,
2013-02-08 20:00:00,33.6,-0.2,29.23,East,87,3.6,3.6,23,0.00,,---,0.00,VWS V14.01,2013-02-09 02:00:00,
2013-02-08 20:03:00,33.6,-0.2,29.23,ENE,74,4.9,4.9,23,0.00,,---,0.00,VWS V14.01,2013-02-09 02:03:00,
2013-02-08 20:04:00,33.6,-0.2,29.23,ENE,74,4.9,4.9,23,0.00,,---,0.00,VWS V14.01,2013-02-09 02:04:00,
2013-02-08 20:05:00,33.6,-0.2,29.23,ENE,67,0.0,0.0,23,0.00,,---,0.00,VWS V14.01,2013-02-09 02:05:00,
2013-02-08 20:08:00,33.3,-0.5,29.23,ENE,67,0.0,0.0,23,0.00,,---,0.00,VWS V14.01,2013-02-09 02:08:00,
2013-02-08 20:09:00,33.3,-0.5,29.23,ENE,67,0.0,0.0,23,0.00,,---,0.00,VWS V14.01,2013-02-09 02:09:00,
2013-02-08 20:10:00,33.3,-0.5,29.23,ENE,78,3.1,3.1,23,0.00,,---,0.00,VWS V14.01,2013-02-09 02:10:00,
2013-02-08 20:14:00,33.1,-0.7,29.23,ENE,78,0.0,0.0,23,0.00,,---,0.00,VWS V14.01,2013-02-09 02:14:00,
2013-02-08 20:15:00,33.1,-0.7,29.23,ENE,78,0.0,0.0,23,0.00,,---,0.00,VWS V14.01,2013-02-09 02:15:00,
2013-02-08 20:19:00,33.1,-0.7,29.23,ENE,76,3.1,3.1,23,0.00,,---,0.00,VWS V14.01,2013-02-09 02:19:00,
2013-02-08 20:20:00,33.1,-0.7,29.23,ENE,77,3.1,3.1,23,0.00,,---,0.00,VWS V14.01,2013-02-09 02:20:00,
2013-02-08 20:24:00,33.1,-0.7,29.23,ENE,78,2.7,2.7,23,0.00,,---,0.00,VWS V14.01,2013-02-09 02:24:00,
2013-02-08 20:26:00,32.9,-0.8,29.23,ENE,78,2.7,2.7,23,0.00,,---,0.00,VWS V14.01,2013-02-09 02:26:00,
2013-02-08 20:29:00,32.9,-0.8,29.21,East,90,2.7,3.6,23,0.00,,---,0.00,VWS V14.01,2013-02-09 02:29:00,
2013-02-08 20:31:00,32.9,-0.8,29.21,East,90,2.7,2.7,23,0.00,,---,0.00,VWS V14.01,2013-02-09 02:31:00,
2013-02-08 20:34:00,32.9,-0.8,29.21,East,85,3.1,3.1,23,0.00,,---,0.00,VWS V14.01,2013-02-09 02:34:00,
2013-02-08 20:36:00,32.5,-1.1,29.21,East,85,3.1,3.1,23,0.00,,---,0.00,VWS V14.01,2013-02-09 02:36:00,
2013-02-08 20:39:00,32.5,-1.1,29.21,East,98,2.2,2.2,23,0.00,,---,0.00,VWS V14.01,2013-02-09 02:39:00,
2013-02-08 20:41:00,32.5,-1.1,29.21,East,98,2.2,2.2,23,0.00,,---,0.00,VWS V14.01,2013-02-09 02:41:00,
2013-02-08 20:44:00,32.4,-1.3,29.21,East,98,2.7,2.7,23,0.00,,---,0.00,VWS V14.01,2013-02-09 02:44:00,
2013-02-08 20:46:00,32.4,-1.3,29.21,ENE,69,2.7,2.7,23,0.00,,---,0.00,VWS V14.01,2013-02-09 02:46:00,
2013-02-08 20:49:00,32.4,-1.3,29.21,ENE,78,0.0,0.0,23,0.00,,---,0.00,VWS V14.01,2013-02-09 02:49:00,
2013-02-08 20:51:00,32.4,-1.3,29.21,ENE,78,0.0,0.0,23,0.00,,---,0.00,VWS V14.01,2013-02-09 02:51:00,
2013-02-08 20:54:00,32.2,-1.4,29.21,ESE,122,2.7,2.7,23,0.00,,---,0.00,VWS V14.01,2013-02-09 02:54:00,
2013-02-08 20:56:00,32.2,-1.4,29.21,East,87,4.0,4.0,23,0.00,,---,0.00,VWS V14.01,2013-02-09 02:56:00,
2013-02-08 20:59:00,32.2,-1.4,29.21,ENE,78,2.2,2.2,23,0.00,,---,0.00,VWS V14.01,2013-02-09 02:59:00,
2013-02-08 21:01:00,32.2,-1.4,29.21,ENE,78,2.2,2.2,23,0.00,,---,0.00,VWS V14.01,2013-02-09 03:01:00,
2013-02-08 21:04:00,32.0,-1.6,29.21,ENE,74,0.0,2.2,23,0.00,,---,0.00,VWS V14.01,2013-02-09 03:04:00,
2013-02-08 21:06:00,32.0,-1.6,29.21,ENE,75,3.6,3.6,23,0.00,,---,0.00,VWS V14.01,2013-02-09 03:06:00,
2013-02-08 21:09:00,32.0,-1.6,29.21,East,88,4.0,4.0,23,0.00,,---,0.00,VWS V14.01,2013-02-09 03:09:00,
2013-02-08 21:11:00,31.8,-1.8,29.21,East,85,0.0,4.0,23,0.00,,---,0.00,VWS V14.01,2013-02-09 03:11:00,
2013-02-08 21:14:00,31.8,-1.8,29.21,East,85,0.0,0.0,23,0.00,,---,0.00,VWS V14.01,2013-02-09 03:14:00,
2013-02-08 21:16:00,31.8,-1.8,29.21,East,85,2.2,2.2,23,0.00,,---,0.00,VWS V14.01,2013-02-09 03:16:00,
2013-02-08 21:19:00,31.8,-1.8,29.21,East,88,2.2,2.2,23,0.00,,---,0.00,VWS V14.01,2013-02-09 03:19:00,
2013-02-08 21:20:00,31.8,-1.8,29.21,East,88,2.2,2.2,23,0.00,,---,0.00,VWS V14.01,2013-02-09 03:20:00,
2013-02-08 21:21:00,31.6,-1.9,29.21,East,88,0.0,0.0,23,0.00,,---,0.00,VWS V14.01,2013-02-09 03:21:00,
2013-02-08 21:25:00,31.6,-1.9,29.21,East,88,2.7,2.7,23,0.00,,---,0.00,VWS V14.01,2013-02-09 03:25:00,
2013-02-08 21:26:00,31.6,-1.9,29.21,East,92,2.7,2.7,23,0.00,,---,0.00,VWS V14.01,2013-02-09 03:26:00,
2013-02-08 21:30:00,31.5,-2.0,29.21,East,92,2.7,2.7,23,0.00,,---,0.00,VWS V14.01,2013-02-09 03:30:00,
2013-02-08 21:31:00,31.5,-2.0,29.21,East,92,2.7,2.7,23,0.00,,---,0.00,VWS V14.01,2013-02-09 03:31:00,
2013-02-08 21:35:00,31.5,-2.0,29.21,East,93,0.0,0.0,23,0.00,,---,0.00,VWS V14.01,2013-02-09 03:35:00,
2013-02-08 21:36:00,31.5,-2.0,29.21,East,95,0.0,0.0,23,0.00,,---,0.00,VWS V14.01,2013-02-09 03:36:00,
2013-02-08 21:40:00,31.3,-2.2,29.21,East,95,2.7,2.7,23,0.00,,---,0.00,VWS V14.01,2013-02-09 03:40:00,
2013-02-08 21:41:00,31.3,-2.2,29.21,East,95,2.7,2.7,23,0.00,,---,0.00,VWS V14.01,2013-02-09 03:41:00,
2013-02-08 21:45:00,31.3,-2.2,29.21,East,81,0.0,3.1,23,0.00,,---,0.00,VWS V14.01,2013-02-09 03:45:00,
2013-02-08 21:46:00,31.3,-2.2,29.21,East,81,0.0,0.0,23,0.00,,---,0.00,VWS V14.01,2013-02-09 03:46:00,
2013-02-08 21:50:00,31.3,-2.2,29.21,East,81,0.0,0.0,23,0.00,,---,0.00,VWS V14.01,2013-02-09 03:50:00,
2013-02-08 21:51:00,31.3,-2.2,29.21,East,81,0.0,2.2,23,0.00,,---,0.00,VWS V14.01,2013-02-09 03:51:00,
2013-02-08 21:52:00,31.3,-2.2,29.21,East,81,0.0,0.0,23,0.00,,---,0.00,VWS V14.01,2013-02-09 03:52:00,
2013-02-08 21:55:00,31.3,-2.2,29.21,East,81,0.0,0.0,23,0.00,,---,0.00,VWS V14.01,2013-02-09 03:55:00,
2013-02-08 21:56:00,31.3,-2.2,29.21,East,88,2.7,4.0,23,0.00,,---,0.00,VWS V14.01,2013-02-09 03:56:00,
2013-02-08 21:57:00,31.1,-2.4,29.21,East,88,2.7,2.7,23,0.00,,---,0.00,VWS V14.01,2013-02-09 03:57:00,
2013-02-08 22:00:00,31.1,-2.4,29.21,East,80,3.1,3.1,23,0.00,,---,0.00,VWS V14.01,2013-02-09 04:00:00,
2013-02-08 22:01:00,31.1,-2.4,29.21,East,80,3.1,3.1,23,0.00,,---,0.00,VWS V14.01,2013-02-09 04:01:00,
2013-02-08 22:02:00,31.1,-2.4,29.21,East,89,0.0,3.1,23,0.00,,---,0.00,VWS V14.01,2013-02-09 04:02:00,
2013-02-08 22:05:00,31.1,-2.4,29.21,East,81,2.2,2.2,23,0.00,,---,0.00,VWS V14.01,2013-02-09 04:05:00,
2013-02-08 22:06:00,31.1,-2.4,29.21,East,81,2.2,2.2,23,0.00,,---,0.00,VWS V14.01,2013-02-09 04:06:00,
2013-02-08 22:07:00,31.1,-2.4,29.21,East,81,2.2,2.2,23,0.00,,---,0.00,VWS V14.01,2013-02-09 04:07:00,
2013-02-08 22:10:00,31.1,-2.4,29.21,ENE,67,0.0,0.0,23,0.00,,---,0.00,VWS V14.01,2013-02-09 04:10:00,
2013-02-08 22:11:00,31.1,-2.4,29.21,ENE,67,0.0,0.0,23,0.00,,---,0.00,VWS V14.01,2013-02-09 04:11:00,
2013-02-08 22:12:00,31.1,-2.4,29.21,East,88,0.0,0.0,23,0.00,,---,0.00,VWS V14.01,2013-02-09 04:12:00,
2013-02-08 22:15:00,31.1,-2.4,29.21,East,88,0.0,0.0,23,0.00,,---,0.00,VWS V14.01,2013-02-09 04:15:00,
2013-02-08 22:16:00,31.1,-2.4,29.21,East,88,0.0,0.0,23,0.00,,---,0.00,VWS V14.01,2013-02-09 04:16:00,
2013-02-08 22:17:00,31.1,-2.4,29.21,East,88,0.0,0.0,23,0.00,,---,0.00,VWS V14.01,2013-02-09 04:17:00,
2013-02-08 22:20:00,31.1,-2.4,29.21,East,87,0.0,0.0,23,0.00,,---,0.00,VWS V14.01,2013-02-09 04:20:00,
2013-02-08 22:21:00,31.1,-2.4,29.21,ESE,104,2.7,2.7,23,0.00,,---,0.00,VWS V14.01,2013-02-09 04:21:00,
2013-02-08 22:22:00,31.1,-2.4,29.21,East,90,2.2,2.7,23,0.00,,---,0.00,VWS V14.01,2013-02-09 04:22:00,
2013-02-08 22:25:00,31.1,-2.4,29.21,East,101,2.2,2.2,23,0.00,,---,0.00,VWS V14.01,2013-02-09 04:25:00,
2013-02-08 22:26:00,31.1,-2.4,29.21,East,101,2.2,2.2,23,0.00,,---,0.00,VWS V14.01,2013-02-09 04:26:00,
2013-02-08 22:27:00,31.1,-2.4,29.21,East,101,0.0,2.2,23,0.00,,---,0.00,VWS V14.01,2013-02-09 04:27:00,
2013-02-08 22:31:00,31.1,-2.4,29.21,ENE,76,2.7,2.7,23,0.00,,---,0.00,VWS V14.01,2013-02-09 04:31:00,
2013-02-08 22:32:00,31.1,-2.4,29.21,East,86,0.0,3.1,23,0.00,,---,0.00,VWS V14.01,2013-02-09 04:32:00,
2013-02-08 22:36:00,31.1,-2.4,29.21,East,83,2.2,2.2,23,0.00,,---,0.00,VWS V14.01,2013-02-09 04:36:00,
2013-02-08 22:37:00,31.1,-2.4,29.21,East,83,2.2,2.2,23,0.00,,---,0.00,VWS V14.01,2013-02-09 04:37:00,
2013-02-08 22:41:00,31.1,-2.4,29.21,East,87,0.0,0.0,23,0.00,,---,0.00,VWS V14.01,2013-02-09 04:41:00,
2013-02-08 22:42:00,30.9,-2.5,29.21,East,90,0.0,0.0,23,0.00,,---,0.00,VWS V14.01,2013-02-09 04:42:00,
2013-02-08 22:46:00,30.9,-2.5,29.21,ESE,102,0.0,0.0,23,0.00,,---,0.00,VWS V14.01,2013-02-09 04:46:00,
2013-02-08 22:47:00,30.9,-2.5,29.21,ESE,102,0.0,0.0,23,0.00,,---,0.00,VWS V14.01,2013-02-09 04:47:00,
2013-02-08 22:51:00,30.9,-2.5,29.21,East,86,0.0,0.0,23,0.00,,---,0.00,VWS V14.01,2013-02-09 04:51:00,
2013-02-08 22:52:00,30.9,-2.5,29.21,East,86,0.0,0.0,23,0.00,,---,0.00,VWS V14.01,2013-02-09 04:52:00,
2013-02-08 22:53:00,30.9,-2.5,29.21,East,86,0.0,0.0,23,0.00,,---,0.00,VWS V14.01,2013-02-09 04:53:00,
2013-02-08 22:56:00,30.9,-2.5,29.21,NE,55,0.0,3.1,23,0.00,,---,0.00,VWS V14.01,2013-02-09 04:56:00,
2013-02-08 22:57:00,30.9,-2.5,29.21,NE,55,0.0,0.0,23,0.00,,---,0.00,VWS V14.01,2013-02-09 04:57:00,
2013-02-08 22:58:00,30.9,-2.5,29.21,East,85,0.0,0.0,23,0.00,,---,0.00,VWS V14.01,2013-02-09 04:58:00,
2013-02-08 23:00:00,30.9,-2.5,29.21,East,84,0.0,0.0,23,0.00,,---,0.00,VWS V14.01,2013-02-09 05:00:00,
2013-02-08 23:05:00,30.9,-2.5,29.21,ENE,77,0.0,0.0,23,0.00,,---,0.00,VWS V14.01,2013-02-09 05:05:00,
2013-02-08 23:10:00,30.9,-2.5,29.21,ENE,77,0.0,0.0,23,0.00,,---,0.00,VWS V14.01,2013-02-09 05:10:00,
2013-02-08 23:15:00,30.9,-2.5,29.21,ENE,77,0.0,0.0,23,0.00,,---,0.00,VWS V14.01,2013-02-09 05:15:00,
2013-02-08 23:20:00,30.9,-2.5,29.21,ENE,78,0.0,0.0,23,0.00,,---,0.00,VWS V14.01,2013-02-09 05:20:00,
2013-02-08 23:25:00,30.9,-2.5,29.21,ENE,78,0.0,0.0,23,0.00,,---,0.00,VWS V14.01,2013-02-09 05:25:00,
2013-02-08 23:26:00,30.9,-2.5,29.21,ENE,78,0.0,0.0,23,0.00,,---,0.00,VWS V14.01,2013-02-09 05:26:00,
2013-02-08 23:30:00,30.9,-2.5,29.21,ENE,58,0.0,0.0,23,0.00,,---,0.00,VWS V14.01,2013-02-09 05:30:00,
2013-02-08 23:31:00,30.9,-2.5,29.21,ENE,58,0.0,0.0,23,0.00,,---,0.00,VWS V14.01,2013-02-09 05:31:00,
2013-02-08 23:35:00,30.9,-2.5,29.21,ENE,73,0.0,0.0,23,0.00,,---,0.00,VWS V14.01,2013-02-09 05:35:00,
2013-02-08 23:36:00,30.9,-2.5,29.21,ENE,73,0.0,0.0,23,0.00,,---,0.00,VWS V14.01,2013-02-09 05:36:00,
2013-02-08 23:40:00,30.9,-2.5,29.21,East,91,0.0,0.0,23,0.00,,---,0.00,VWS V14.01,2013-02-09 05:40:00,
2013-02-08 23:41:00,30.9,-2.5,29.21,East,91,0.0,0.0,23,0.00,,---,0.00,VWS V14.01,2013-02-09 05:41:00,
2013-02-08 23:45:00,30.9,-2.5,29.21,East,94,2.2,2.2,23,0.00,,---,0.00,VWS V14.01,2013-02-09 05:45:00,
2013-02-08 23:46:00,30.9,-2.5,29.21,East,94,2.2,2.2,23,0.00,,---,0.00,VWS V14.01,2013-02-09 05:46:00,
2013-02-08 23:50:00,30.9,-2.5,29.21,East,87,0.0,0.0,23,0.00,,---,0.00,VWS V14.01,2013-02-09 05:50:00,
2013-02-08 23:51:00,30.9,-2.5,29.21,ENE,65,0.0,3.6,23,0.00,,---,0.00,VWS V14.01,2013-02-09 05:51:00,
2013-02-08 23:52:00,30.9,-2.5,29.21,ENE,65,0.0,0.0,23,0.00,,---,0.00,VWS V14.01,2013-02-09 05:52:00,
2013-02-08 23:55:00,30.9,-2.5,29.21,East,99,0.0,0.0,23,0.00,,---,0.00,VWS V14.01,2013-02-09 05:55:00,
2013-02-08 23:56:00,30.9,-2.5,29.21,East,99,0.0,0.0,23,0.00,,---,0.00,VWS V14.01,2013-02-09 05:56:00,
2013-02-08 23:57:00,30.9,-2.5,29.21,East,99,0.0,0.0,23,0.00,,---,0.00,VWS V14.01,2013-02-09 05:57:00,